ECMWFNIL_925_thetae_000.txt.gz
Theta_e
294 294 294 293 293 292 292 291 291 291 291 290 290 290 291 290 290 289 288 288 287 287 287 287 287 287 286 286 286 286 286 285 285 285 285 285 284 283 283 283 283 283
294 294 294 293 293 292 292 292 291 291 291 291 291 290 290 290 289 289 289 288 287 287 287 287 287 287 286 286 286 286 285 285 284 284 284 284 284 283 283 283 282 282
294 294 294 293 293 292 292 291 291 291 291 291 290 290 290 290 289 289 288 288 287 287 287 286 287 287 286 286 286 285 285 285 284 284 284 284 284 283 283 282 282 282
294 294 294 293 293 292 292 291 291 291 291 290 290 290 289 289 289 288 288 288 287 287 286 286 287 287 286 286 286 285 284 284 284 284 284 283 283 283 282 282 282 281
294 294 294 293 293 292 291 291 291 291 290 290 290 290 289 289 289 288 288 287 287 287 286 286 286 286 286 286 285 284 284 283 283 283 283 283 283 283 282 282 281 281
294 294 293 293 292 292 291 291 291 291 290 290 290 289 289 289 289 288 288 287 287 286 286 286 286 286 286 285 284 284 283 283 283 283 283 283 282 282 282 281 281 281
293 293 293 292 292 291 291 291 291 290 290 290 289 289 289 289 289 288 288 287 287 286 286 286 286 286 285 284 284 283 283 283 283 282 282 282 282 282 281 281 280 280
293 293 292 292 291 291 291 291 290 290 290 289 289 289 289 289 289 288 288 287 287 286 286 286 286 286 285 284 283 283 282 282 282 282 282 282 282 281 281 280 280 280
293 292 292 291 291 291 291 290 290 290 289 289 289 289 288 288 288 288 288 287 287 286 286 286 285 285 284 283 283 283 282 282 282 282 282 282 282 281 281 280 280 280
292 292 291 291 291 291 290 290 290 289 289 289 289 288 288 288 288 288 287 287 286 286 286 285 285 284 283 283 283 282 282 282 282 282 282 282 282 282 281 281 280 279
292 291 291 291 291 290 290 290 290 289 289 289 288 288 288 287 287 287 287 286 286 286 285 285 284 284 283 283 282 282 282 282 282 282 282 282 282 282 281 281 280 279
291 291 291 291 290 290 290 290 289 289 288 288 288 288 287 287 287 287 286 286 286 285 285 285 284 283 283 283 282 282 282 282 282 282 282 282 282 281 281 280 280 279
291 291 291 291 290 290 290 289 289 288 288 287 287 287 287 287 286 286 286 286 286 285 285 284 283 282 282 282 282 282 282 281 282 282 282 282 281 281 280 279 279 278
292 292 291 290 290 289 289 288 288 287 287 287 287 287 286 286 286 286 286 286 285 285 285 284 282 282 282 282 282 282 281 281 282 282 282 281 281 280 279 278 278 277
292 291 290 290 289 288 288 288 287 287 286 286 286 286 286 286 286 286 286 285 284 284 283 282 282 282 282 282 282 281 281 282 282 282 282 281 280 279 278 277 276 275
291 290 290 289 288 288 287 287 286 286 286 285 285 285 285 285 285 285 285 285 284 283 282 282 282 282 282 282 282 282 282 282 282 281 281 280 279 278 277 276 275 275
291 290 289 288 288 287 287 286 286 285 285 285 284 284 284 284 284 284 284 283 283 282 281 281 281 282 281 281 281 281 282 282 282 281 280 279 278 277 276 275 275 275
290 289 288 287 287 286 286 285 285 284 284 284 284 283 283 283 283 283 282 282 281 281 281 281 281 281 281 280 281 281 281 281 281 280 279 278 277 276 276 275 274 274
289 288 287 286 286 285 285 284 284 284 283 283 283 283 282 282 282 282 281 281 281 281 281 281 281 280 280 280 281 280 280 280 280 279 278 277 276 276 275 274 274 274
288 287 286 286 285 285 284 284 283 283 283 282 282 282 281 281 281 281 281 280 280 280 280 280 280 280 280 281 280 280 279 279 278 278 277 276 276 275 275 275 275 275
287 286 286 285 284 284 283 283 282 282 282 281 281 281 281 281 280 280 280 280 280 280 279 279 279 279 280 281 281 280 278 277 277 277 276 276 276 275 275 275 275 275
287 286 285 284 283 283 282 282 281 281 281 281 281 280 280 280 280 279 279 279 279 279 278 279 279 279 280 281 281 281 279 278 277 277 276 276 275 275 275 275 275 275
286 285 284 283 283 282 281 281 281 281 280 280 280 279 279 279 278 278 278 278 278 278 278 278 278 279 280 281 280 281 280 279 278 277 276 276 276 275 275 275 275 274
285 285 284 283 282 281 281 281 280 280 279 279 279 279 278 278 278 277 277 277 277 277 277 278 278 279 280 280 280 280 280 279 278 277 276 276 276 275 275 275 274 274
285 284 283 282 281 281 280 280 280 279 279 279 279 278 278 277 277 277 276 276 277 277 276 277 278 278 279 280 280 280 279 278 277 277 276 276 275 275 275 274 274 274
284 284 283 282 281 280 280 279 279 278 278 278 278 277 277 276 276 276 276 275 275 275 275 276 277 278 278 279 279 280 279 278 277 276 276 275 275 274 274 274 274 274

ECMWFNIL_925_thetae_003.txt.gz
Theta_e
296 296 296 295 295 295 295 295 294 294 294 294 293 293 293 293 292 293 292 291 290 289 288 287 287 287 287 287 287 287 287 287 287 287 286 286 285 285 284 284 284 284
296 296 295 295 295 295 295 295 295 294 294 294 294 293 293 292 292 292 292 292 290 289 288 287 287 286 287 287 287 287 287 287 287 286 286 285 285 284 284 284 283 283
296 295 295 295 295 295 295 294 294 294 294 294 293 293 292 292 292 292 292 291 291 289 288 287 287 286 286 286 286 287 287 287 286 286 285 285 284 284 284 283 283 283
295 295 295 296 295 295 295 294 294 294 293 293 293 292 292 292 292 291 291 291 290 289 288 287 287 286 286 286 286 286 286 286 286 285 285 284 284 283 283 283 283 283
295 295 295 295 295 294 294 294 294 293 293 293 292 292 291 291 291 291 291 290 289 289 288 287 287 286 286 286 286 286 286 286 285 285 285 284 283 283 283 283 283 283
295 295 295 295 294 294 293 293 293 293 292 292 292 291 291 291 291 290 290 290 289 288 288 287 287 286 285 285 285 285 285 285 285 285 284 284 283 283 283 283 283 283
295 295 295 294 294 293 293 293 293 293 292 292 291 291 291 290 290 290 290 290 289 288 288 287 287 286 286 285 285 285 285 285 285 284 284 283 283 283 282 282 282 282
295 295 294 294 293 293 293 293 293 292 292 291 291 291 291 290 290 290 289 289 289 288 287 287 287 286 286 285 285 285 285 284 285 284 283 283 283 283 282 282 282 282
294 294 294 293 293 293 293 293 292 292 292 291 290 290 290 290 290 289 289 289 288 288 287 286 286 286 285 285 285 285 284 284 284 284 283 283 283 283 283 282 282 282
293 293 293 293 292 292 293 292 292 292 291 291 290 290 290 289 289 289 289 289 288 288 287 286 286 286 285 285 285 285 285 285 284 284 283 283 283 283 282 282 282 282
293 293 292 292 292 292 292 292 292 291 291 290 290 290 290 289 289 288 288 288 288 288 287 287 286 285 285 284 284 284 285 284 284 284 283 283 283 283 282 282 282 282
293 292 292 293 292 292 292 292 291 291 290 290 290 289 289 288 288 288 288 288 288 288 288 287 287 286 285 284 284 284 284 284 284 283 283 283 282 282 282 282 282 282
293 293 293 293 293 292 292 291 291 290 290 289 289 289 288 288 288 288 288 288 288 287 287 287 287 286 285 284 284 284 283 283 283 283 283 282 282 282 282 282 282 282
293 293 293 293 292 292 291 291 290 290 289 289 289 288 288 288 288 287 287 287 287 287 287 286 286 285 284 284 284 283 283 282 282 282 282 282 281 281 281 281 281 281
293 293 293 292 292 291 291 290 290 290 289 289 288 288 288 287 287 287 286 286 286 286 286 285 285 285 284 284 283 283 282 282 282 282 282 281 281 281 281 281 281 281
293 293 292 291 291 291 290 290 290 289 288 288 288 287 287 287 286 286 286 286 285 285 285 285 284 284 284 284 284 283 282 281 281 281 281 281 281 280 280 280 280 280
293 292 292 291 291 290 290 289 289 288 288 287 287 287 286 286 286 286 286 286 285 285 284 284 284 283 284 284 283 282 282 281 281 281 281 281 281 280 280 280 279 279
293 292 291 291 290 290 289 289 288 288 287 287 286 286 286 285 285 285 285 285 285 284 284 283 283 283 283 283 282 282 282 281 281 281 280 280 280 280 280 280 279 278
293 292 291 291 290 289 289 288 287 287 286 286 286 285 285 285 285 285 285 284 284 283 283 283 283 283 283 283 282 282 282 281 281 280 280 280 280 280 279 279 278 278
292 291 291 290 289 289 288 287 287 286 286 285 285 284 284 284 284 284 284 284 283 283 283 283 282 282 282 282 282 282 281 280 280 280 280 280 280 280 279 279 278 277
291 291 290 289 288 288 287 287 286 285 285 285 284 284 284 284 283 283 283 283 283 283 282 282 282 282 282 282 283 282 281 280 280 279 279 279 279 279 278 278 277 277
290 290 289 288 287 287 286 286 285 285 284 284 284 283 283 283 283 283 282 282 282 282 282 281 281 281 282 283 283 283 281 280 279 279 278 278 278 278 277 277 277 276
289 289 288 287 286 286 285 285 284 284 284 283 283 282 282 282 282 282 282 282 281 281 281 280 280 281 282 283 283 283 281 279 278 278 277 277 277 277 276 276 276 276
289 288 287 287 286 285 284 284 284 283 283 283 282 282 282 282 281 281 281 281 281 281 281 280 280 281 282 283 284 283 281 279 278 277 277 276 276 276 276 276 276 276
288 287 287 286 285 284 284 284 283 283 282 282 282 282 281 281 281 280 280 280 280 280 280 280 280 280 282 284 284 283 281 279 278 276 276 275 275 276 275 275 275 275
287 287 286 286 285 284 283 283 283 282 282 281 281 281 281 280 280 280 279 279 279 279 279 279 280 280 282 284 284 283 281 279 277 276 276 276 275 276 275 275 275 275

ECMWFNIL_925_thetae_006.txt.gz
Theta_e
297 297 297 296 296 296 296 296 295 295 295 294 295 295 295 295 294 294 293 293 292 292 291 290 289 289 289 288 288 287 287 288 288 288 288 288 287 287 287 286 286 286
296 296 296 296 296 295 295 296 296 295 295 295 296 296 295 294 293 293 293 292 292 291 290 290 289 289 288 288 288 287 287 287 287 287 287 287 287 286 286 286 285 285
296 296 296 296 296 295 295 295 295 295 295 295 295 295 294 294 293 293 292 292 291 291 290 289 289 288 288 288 287 287 287 287 287 287 287 287 286 286 285 285 285 285
296 296 296 296 296 295 295 295 295 295 295 294 294 294 294 294 293 293 292 292 291 291 290 289 289 288 288 288 287 287 286 286 286 287 287 286 286 285 285 285 284 284
296 296 296 296 296 295 295 295 295 294 294 294 294 294 294 294 293 292 292 292 291 291 290 289 288 288 288 287 287 287 286 286 286 286 286 286 286 285 285 284 284 284
295 296 295 295 295 295 295 295 294 294 294 294 294 294 294 293 293 293 292 292 291 290 290 289 288 288 287 287 287 286 286 286 286 286 286 286 286 285 284 284 284 283
295 295 295 295 295 294 295 294 294 294 294 294 293 293 293 292 292 292 292 292 291 291 290 289 289 288 287 287 286 286 286 285 285 286 285 286 285 285 284 284 283 283
294 294 294 294 294 294 294 294 294 294 294 294 293 293 293 292 292 292 292 292 291 290 290 289 289 289 288 287 286 286 285 285 285 285 285 285 285 285 284 284 283 283
293 293 293 293 293 293 294 294 294 294 294 293 293 293 292 292 292 292 291 291 291 290 290 289 289 288 288 287 286 286 285 285 285 285 285 285 285 285 284 284 283 283
293 293 293 293 293 293 293 293 293 293 293 293 292 292 292 292 292 292 291 291 290 290 290 289 289 288 287 287 286 286 285 285 285 285 285 285 285 285 285 284 283 283
293 293 293 293 293 293 293 293 293 292 292 292 291 291 291 291 291 291 291 290 290 290 290 289 289 288 287 286 286 285 285 285 285 285 285 285 285 285 285 284 284 283
292 292 292 293 293 293 293 292 292 292 291 291 291 290 290 290 290 290 290 290 290 290 290 289 289 288 287 287 286 285 285 284 284 284 284 284 285 285 285 284 284 284
292 292 292 292 293 292 292 292 292 291 291 291 290 290 289 289 289 289 289 289 289 289 289 289 288 288 287 287 286 285 285 284 284 284 284 284 284 284 284 284 284 284
293 293 292 292 292 292 292 292 291 291 291 291 290 289 289 289 289 289 288 288 288 288 288 288 288 287 286 286 286 285 285 284 284 284 284 283 283 284 284 283 283 283
293 293 293 293 292 292 292 291 291 291 291 291 290 289 289 289 288 288 288 287 287 287 287 287 287 287 287 286 285 285 284 284 283 283 283 283 283 283 283 283 283 283
292 292 293 292 292 292 291 291 291 291 291 290 290 289 289 288 288 287 287 287 287 287 286 286 286 286 286 286 286 285 284 283 283 282 282 282 282 282 281 282 282 282
292 292 292 292 292 292 291 291 291 290 290 290 290 289 288 288 287 287 287 287 287 286 286 286 285 286 285 285 285 285 284 283 282 282 282 282 282 281 281 281 281 281
291 291 291 291 291 291 291 291 290 290 290 289 289 288 288 287 287 287 286 286 286 286 286 285 285 285 285 285 285 285 285 284 283 282 282 281 281 281 281 281 281 281
289 289 290 290 290 291 291 290 290 290 289 289 288 288 287 287 286 286 286 286 286 285 285 285 285 285 285 285 285 285 284 284 283 282 281 281 281 280 280 280 280 280
289 288 289 289 290 290 290 290 289 289 289 288 288 287 286 286 286 286 285 285 285 285 285 285 285 284 284 284 285 284 284 283 283 282 281 281 281 280 280 280 280 280
288 288 288 289 289 289 289 289 289 288 288 287 287 286 286 286 286 285 285 285 285 285 285 285 285 284 284 284 284 284 284 283 282 281 281 280 280 280 280 280 280 280
288 288 287 288 288 288 288 288 288 288 287 287 286 286 286 285 285 285 285 285 285 285 285 284 284 284 284 284 284 285 285 283 282 280 280 279 279 279 279 279 280 280
288 288 287 287 287 287 287 287 287 287 286 286 286 285 285 285 285 285 285 285 284 284 284 284 284 283 283 284 285 285 285 283 281 280 279 279 279 279 278 278 279 279
287 287 287 287 287 287 287 287 286 286 286 285 285 285 285 284 284 284 284 284 284 284 284 283 283 283 283 284 285 286 285 283 281 279 279 278 278 278 278 278 278 278
287 287 287 287 286 286 286 286 286 285 285 285 284 284 284 284 284 284 283 283 283 283 283 283 283 282 283 284 285 286 285 283 280 279 278 277 277 276 276 276 277 277
287 287 287 287 286 286 286 285 285 285 284 284 284 284 283 283 283 283 283 283 282 282 282 282 282 282 283 284 286 286 285 282 280 279 278 277 276 276 276 276 276 276

ECMWFNIL_925_thetae_009.txt.gz
Theta_e
296 296 297 296 296 296 296 296 296 295 295 295 295 295 295 295 295 294 295 294 294 294 294 293 293 293 292 291 290 289 289 289 289 289 289 289 289 290 290 291 291 291
296 296 296 296 296 296 296 296 296 296 296 296 295 295 295 294 293 293 294 293 293 293 293 293 292 292 291 291 290 289 289 288 289 289 288 288 289 289 290 290 290 290
296 296 296 296 296 296 296 295 295 295 296 295 295 295 294 294 293 293 293 293 293 293 292 292 292 291 291 290 289 289 289 288 288 288 288 288 289 289 289 289 290 289
295 295 296 296 296 295 295 295 295 295 295 295 295 295 295 294 294 293 293 292 292 292 292 291 291 291 290 290 289 289 288 288 288 288 288 288 288 288 288 289 289 289
294 295 295 295 295 295 295 295 295 295 295 295 294 294 294 294 294 293 293 293 292 292 291 291 291 290 290 290 289 288 288 287 287 288 287 287 287 287 288 288 288 288
294 294 294 294 294 294 295 295 295 295 295 295 294 294 294 294 293 293 293 293 292 292 291 291 290 290 289 289 288 288 287 287 287 287 287 287 287 287 287 287 287 287
293 294 294 294 294 294 294 294 294 294 294 294 294 294 294 293 293 293 293 292 292 292 291 291 290 290 289 289 288 287 287 287 286 286 286 286 286 287 287 287 287 286
292 292 293 293 294 294 294 294 294 294 294 294 293 293 293 293 293 293 292 292 292 291 291 291 290 290 289 288 288 287 286 286 286 286 286 286 286 286 286 286 286 286
292 292 291 292 292 293 293 294 294 294 293 293 293 293 293 293 293 293 292 292 292 291 290 290 290 289 289 288 288 287 286 286 285 285 286 285 285 286 286 286 285 285
292 291 291 291 291 291 292 292 293 293 293 293 292 292 292 292 292 292 292 291 291 291 290 289 289 289 289 288 288 287 286 286 285 285 285 285 286 286 286 286 285 285
292 291 291 291 291 291 291 291 291 292 292 292 292 292 291 291 291 291 291 291 291 290 290 290 289 289 288 288 288 287 286 285 285 285 285 285 285 286 286 286 286 285
291 291 291 291 291 291 291 291 290 291 291 291 291 291 291 291 291 290 290 290 290 290 290 290 290 289 288 288 287 287 287 286 285 285 285 285 285 285 285 286 286 286
290 290 290 290 290 291 291 291 290 290 290 291 291 291 291 290 290 290 290 290 290 290 290 289 289 289 288 288 287 286 286 286 285 284 284 284 284 284 285 285 286 286
289 289 289 290 291 291 291 291 291 290 290 290 290 290 290 290 290 289 289 289 289 289 289 289 288 288 288 287 287 286 286 285 285 284 284 284 284 284 284 284 285 285
288 288 288 289 290 290 290 290 290 290 290 290 290 290 290 290 290 289 289 289 289 289 288 288 288 288 288 287 287 286 286 285 285 284 284 284 284 283 283 283 284 284
287 287 287 287 289 290 290 290 290 290 290 290 290 290 290 290 289 289 289 288 288 288 288 288 288 288 288 287 287 287 286 286 285 284 284 283 283 283 283 283 283 283
287 286 286 286 287 288 289 289 289 289 290 290 290 289 289 289 289 289 289 288 288 288 288 287 287 287 287 287 287 287 286 286 285 285 284 283 283 283 282 282 282 282
286 286 285 285 286 287 288 289 289 289 289 289 289 289 289 289 289 289 288 288 288 288 287 287 287 287 287 287 287 286 286 286 285 285 284 283 283 282 282 282 282 282
286 285 284 284 285 286 287 289 289 289 289 289 289 289 289 288 288 288 288 288 288 287 287 287 287 287 287 287 286 286 286 286 285 285 284 283 283 282 282 281 281 281
285 284 283 283 284 285 286 287 288 289 289 288 288 288 288 288 288 288 288 287 287 287 287 287 287 287 287 286 286 286 286 286 285 285 284 284 283 283 282 282 281 281
283 283 282 283 284 284 285 286 287 288 288 288 287 287 287 287 287 287 287 287 287 287 287 287 287 287 286 286 286 286 286 286 286 285 284 284 283 282 282 282 282 281
281 281 281 282 283 284 284 284 285 286 287 287 286 286 286 286 286 287 286 286 287 286 286 286 286 286 286 286 286 286 286 286 286 285 284 283 283 282 282 281 281 281
279 279 279 281 283 284 283 283 284 284 286 286 286 285 285 286 286 286 286 286 286 286 286 286 286 286 286 286 286 286 286 287 286 285 284 283 282 282 281 281 281 281
277 277 279 281 283 283 283 282 282 283 284 285 285 285 285 285 285 285 285 285 285 285 285 285 285 285 285 285 285 286 287 287 286 285 284 283 282 281 281 280 280 280
276 276 278 281 282 282 281 281 281 281 282 283 284 284 284 285 285 284 284 285 285 285 285 285 285 285 285 285 285 286 287 287 287 285 283 282 281 280 280 280 279 279
274 275 277 279 280 280 279 280 280 280 281 281 283 284 284 284 284 284 283 284 284 284 284 284 284 284 284 284 285 286 287 287 286 285 283 282 281 279 279 278 279 279

ECMWFNIL_925_thetae_015.txt.gz
Theta_e
295 295 295 296 297 297 297 298 298 299 299 299 299 299 300 299 299 298 297 297 297 297 297 296 296 296 296 295 295 295 295 295 294 294 294 293 293 293 294 295 295 296
294 294 294 294 295 295 295 296 297 297 298 298 298 298 298 298 298 298 297 297 296 296 296 296 296 296 295 295 295 295 295 294 294 294 294 293 293 293 293 293 294 295
292 292 293 293 294 294 294 294 295 296 296 296 296 296 297 297 297 297 296 296 296 296 296 295 295 295 295 295 295 294 294 294 294 294 294 293 293 293 292 292 293 294
291 291 291 292 292 293 293 293 293 294 294 294 295 295 295 296 296 296 295 295 295 295 295 295 295 295 295 294 294 294 294 294 294 293 293 293 293 292 292 292 292 293
290 290 290 290 291 292 292 292 292 293 293 293 293 293 294 294 295 295 295 295 294 294 294 294 294 294 294 294 294 294 294 293 293 293 293 293 292 292 292 292 292 292
289 289 289 289 289 289 290 291 291 292 292 292 292 292 293 293 293 294 294 294 294 294 294 294 294 294 294 294 294 293 293 293 293 293 293 292 292 292 292 291 291 291
289 288 288 288 288 288 288 288 289 290 290 291 291 292 292 292 292 293 293 293 293 293 293 293 293 293 293 293 293 293 293 293 293 292 292 292 292 292 292 291 291 291
288 287 287 286 286 286 286 286 287 287 288 289 290 291 291 291 291 291 292 292 292 293 293 293 293 293 293 293 292 292 292 292 292 292 292 292 292 292 292 291 291 291
287 286 286 286 286 285 285 285 286 286 286 287 288 289 290 290 291 291 291 291 291 292 292 292 292 292 292 292 292 292 292 292 292 292 292 291 291 291 291 291 291 291
287 287 286 286 286 285 285 285 285 285 286 285 286 286 287 288 289 290 290 290 290 291 291 291 292 292 292 292 292 291 291 291 291 292 291 291 291 291 291 291 291 291
287 287 287 286 286 285 285 285 285 285 285 285 285 285 285 286 287 288 289 290 290 290 290 290 291 291 291 291 291 291 291 291 291 291 291 291 291 291 291 291 291 291
287 287 288 287 286 285 285 285 285 285 285 285 285 285 285 285 285 286 287 288 289 290 290 290 290 290 290 290 290 290 291 290 290 290 290 290 290 290 291 291 291 291
286 287 287 288 287 286 285 284 284 284 284 284 285 285 285 285 285 285 285 286 287 288 289 289 290 290 290 290 290 290 290 290 290 290 290 290 290 290 290 290 290 290
286 286 287 288 287 286 285 284 284 283 283 283 284 284 284 285 284 284 285 285 285 286 287 288 289 289 289 289 289 289 289 289 289 289 289 289 289 289 289 289 289 290
285 285 286 287 286 285 285 284 283 282 281 282 283 283 284 284 284 284 285 285 285 285 286 286 287 288 288 289 289 289 289 289 289 289 289 289 289 289 289 289 289 289
284 284 285 285 285 284 283 283 282 281 281 283 283 284 284 284 284 284 284 284 285 285 285 286 286 286 287 288 289 289 289 289 289 288 288 288 288 288 288 288 288 288
284 284 284 284 283 282 282 281 281 280 281 282 283 284 285 285 284 284 284 284 285 285 285 285 286 286 286 286 287 288 289 289 289 289 288 288 288 288 288 288 288 288
283 283 283 283 282 282 281 280 280 280 280 281 282 283 284 284 284 284 284 284 284 284 285 285 285 286 286 286 286 287 288 288 289 289 289 288 288 288 288 288 288 288
282 282 282 282 282 281 281 280 279 279 279 279 280 281 283 284 284 284 284 284 284 285 285 285 285 285 285 285 285 285 286 288 288 288 288 288 288 288 288 288 288 288
282 281 281 281 281 281 280 279 279 278 278 278 278 280 281 282 283 283 283 284 284 284 284 284 284 285 285 284 284 284 284 286 288 288 289 288 288 288 288 288 288 288
281 281 281 281 280 280 279 279 278 277 277 277 277 278 279 280 281 282 282 283 283 283 283 283 284 284 284 283 283 283 283 285 287 288 288 289 288 288 288 288 288 288
281 280 280 280 280 279 278 278 277 277 276 276 276 277 277 278 279 280 281 281 282 282 282 282 283 283 284 284 283 283 284 285 286 287 288 288 288 288 288 288 288 288
280 279 279 279 279 278 278 277 276 276 275 275 275 275 276 277 278 279 279 280 280 281 281 282 282 283 283 284 284 283 284 285 285 286 287 288 288 288 288 288 288 288
278 278 278 277 277 277 277 276 275 275 275 274 274 274 275 275 277 278 278 278 279 279 280 280 281 281 282 283 283 283 284 284 285 286 287 287 288 288 288 288 288 288
276 276 276 276 275 275 275 275 274 274 274 274 274 274 274 274 275 276 277 277 277 277 278 278 279 279 280 281 282 283 283 283 284 286 286 287 287 287 288 288 289 288
274 274 274 274 274 273 273 273 273 272 273 273 272 273 273 273 274 275 275 275 275 275 275 275 276 277 278 280 281 282 283 283 284 285 286 286 286 287 288 288 288 289

ECMWFNIL_925_thetae_021.txt.gz
Theta_e
286 286 286 286 286 286 286 286 287 288 288 288 289 290 290 291 292 292 293 293 294 294 294 294 294 294 294 294 295 295 295 296 296 296 296 297 296 296 296 296 296 295
286 286 286 286 285 285 285 285 285 285 285 286 286 286 287 287 288 289 290 292 292 293 293 293 293 293 294 294 294 294 294 294 295 295 295 295 296 296 296 295 295 295
286 286 286 285 285 285 285 285 285 285 285 285 285 285 285 285 286 286 287 288 289 290 291 292 292 293 293 293 293 293 293 293 293 294 294 294 295 295 295 295 295 295
287 286 286 286 286 286 285 285 285 285 285 285 285 285 285 285 285 285 285 285 286 286 287 289 290 291 292 292 292 293 292 293 293 293 293 293 294 294 294 294 294 294
286 286 286 286 286 286 286 286 286 285 285 285 285 285 285 285 285 285 285 285 285 285 285 286 286 287 289 291 291 292 292 292 292 292 292 292 293 293 293 294 294 294
286 286 286 286 286 286 286 286 285 285 285 285 285 285 285 285 285 285 285 285 285 285 285 285 285 285 286 287 288 290 291 291 291 291 292 292 292 292 292 293 293 293
286 286 285 285 285 286 286 286 285 285 284 284 284 284 284 284 284 284 284 285 285 285 285 285 285 285 285 285 286 287 288 289 290 291 291 291 291 291 292 292 292 292
286 285 285 285 285 285 285 285 285 285 284 284 284 284 284 284 284 284 284 284 284 284 285 285 285 285 285 285 285 285 286 286 288 289 290 290 291 291 291 291 291 291
285 285 284 284 284 284 284 284 285 284 284 284 284 284 284 284 284 284 284 284 284 284 284 284 284 284 285 285 285 285 285 285 286 286 288 289 290 290 290 290 290 290
285 284 284 284 284 283 283 283 284 283 283 284 283 284 284 284 284 284 284 284 284 284 284 284 284 284 284 284 284 285 285 285 285 285 286 286 287 288 289 290 290 290
285 285 285 284 284 283 283 283 283 283 283 283 283 283 283 283 284 284 284 284 283 283 283 283 283 283 283 284 284 284 284 284 285 285 285 285 286 286 287 288 289 289
286 285 285 284 284 284 283 283 283 282 282 282 282 282 282 282 282 282 282 282 283 283 283 283 283 283 283 283 283 284 284 284 284 284 285 285 285 285 285 286 287 288
285 285 285 284 284 283 283 283 283 283 282 282 282 282 282 282 281 281 281 281 281 281 282 282 282 282 282 283 283 283 284 284 284 284 284 285 285 285 285 285 286 286
285 284 284 284 283 283 283 282 282 282 282 282 282 282 282 281 281 281 281 280 280 280 280 280 280 281 281 282 282 283 283 283 284 284 284 284 285 285 285 285 285 285
284 284 284 283 283 282 282 282 282 282 281 281 281 281 281 281 281 280 280 280 279 279 279 279 279 279 280 280 281 282 282 283 283 283 284 284 285 285 285 285 285 285
284 283 283 282 282 282 281 281 281 281 281 280 280 280 280 280 280 280 279 279 279 278 278 278 278 278 279 279 280 281 282 283 283 283 284 284 285 285 285 285 285 285
283 282 282 281 281 281 281 281 281 280 280 279 279 279 279 279 279 279 278 278 278 278 277 277 277 277 277 278 279 281 282 282 283 283 283 284 284 284 284 285 285 285
282 281 281 280 280 280 280 280 280 280 279 279 279 279 279 279 278 278 277 277 277 277 277 276 276 277 277 277 278 280 280 281 281 282 283 283 283 284 284 284 284 284
280 280 280 280 280 280 280 279 279 278 278 278 278 278 278 277 277 276 276 276 276 276 276 276 276 276 276 277 278 278 279 280 280 281 281 282 283 283 283 283 283 283
279 279 279 278 278 278 277 277 276 276 276 276 276 276 275 275 275 275 275 275 275 275 275 275 275 275 275 276 277 278 278 279 279 280 280 281 282 282 282 283 283 283
278 277 277 277 276 275 275 274 274 274 274 274 274 274 273 273 273 273 273 273 273 273 273 273 273 274 274 275 276 276 277 278 278 278 279 279 280 280 281 281 282 282
276 276 275 274 273 273 273 272 272 272 272 272 271 271 271 271 271 271 271 271 272 272 272 272 272 272 273 274 274 275 275 276 276 276 277 277 278 278 279 280 280 281
274 273 272 272 271 271 271 270 270 270 269 269 269 269 269 269 269 269 269 269 269 270 270 270 270 270 271 272 272 273 273 274 274 274 275 275 276 276 277 278 279 280
271 271 270 270 269 269 269 268 268 268 267 267 267 267 267 267 267 267 267 267 267 268 268 268 268 268 269 269 270 270 271 271 272 273 273 274 274 275 275 276 276 277
269 269 268 268 268 267 267 266 266 266 266 266 266 266 266 266 266 266 266 266 266 266 266 266 266 266 266 267 268 269 270 270 271 272 272 273 273 274 274 275 275 275
267 267 267 266 266 266 265 265 265 265 265 265 265 264 264 264 265 265 265 265 265 265 265 265 265 265 265 266 267 268 269 270 270 271 272 272 272 273 273 273 273 274

ECMWFNIL_925_thetae_024.txt.gz
Theta_e
286 286 286 286 285 285 285 286 285 285 285 285 285 285 285 285 285 286 286 286 286 286 286 286 287 288 289 290 291 292 293 293 293 293 293 293 293 293 294 294 294 294
286 286 286 286 286 286 286 286 286 285 285 285 285 285 285 286 285 286 286 286 286 286 286 286 286 286 286 287 288 289 290 291 291 292 292 292 292 292 293 293 293 293
286 286 286 286 286 286 286 286 286 286 286 286 285 285 285 285 286 286 286 286 286 286 286 286 286 286 286 286 286 286 286 287 288 289 290 291 291 292 292 292 292 292
286 285 285 286 286 286 285 285 285 285 285 285 285 285 285 285 285 285 285 285 285 285 285 285 286 286 285 285 286 286 285 285 286 286 287 288 289 290 291 291 291 292
285 285 285 285 285 285 285 285 285 284 284 285 284 285 285 285 285 285 285 285 285 285 285 285 285 285 285 285 285 285 285 285 285 285 285 285 286 287 288 289 290 290
285 285 285 284 284 284 284 284 284 284 284 284 284 284 284 284 284 285 285 285 285 285 285 285 285 285 285 285 285 285 285 285 285 285 285 285 285 285 285 286 287 288
285 285 285 285 284 284 284 284 284 283 283 283 283 283 284 284 284 284 284 284 284 285 285 285 285 285 285 284 284 284 284 285 285 285 285 285 285 285 285 285 285 285
285 285 285 285 284 284 284 284 283 283 283 283 283 283 283 283 283 283 283 283 283 284 284 284 284 284 284 284 284 284 284 284 284 284 284 284 284 284 285 285 285 285
285 285 285 284 284 284 283 283 283 283 283 283 283 283 283 282 282 282 282 282 282 282 282 282 283 283 283 283 283 283 283 283 283 283 283 283 284 284 284 284 284 284
285 285 285 284 284 283 283 283 282 282 282 282 282 282 282 282 282 281 281 281 281 281 281 281 281 281 281 281 281 281 281 281 281 282 282 282 283 283 284 284 284 284
285 285 285 284 283 283 283 282 282 282 282 281 281 281 281 281 281 281 280 280 280 280 280 280 280 280 280 280 280 279 280 280 280 280 281 281 282 283 283 283 284 284
286 285 285 284 283 283 282 282 282 282 281 281 281 281 280 280 280 280 279 279 279 279 279 279 279 279 279 279 278 278 278 279 279 279 280 280 281 281 282 282 283 283
286 286 285 284 283 282 282 282 282 281 281 281 280 280 280 280 279 279 279 279 278 279 278 278 278 278 278 277 277 277 278 278 278 279 279 280 280 281 281 282 282 282
286 285 285 284 283 282 282 281 281 281 280 280 280 279 279 279 278 278 278 278 278 278 278 278 277 277 277 277 277 277 277 278 278 279 279 280 280 280 281 281 282 282
285 285 285 284 282 281 281 281 280 280 280 279 279 279 278 278 277 277 277 277 277 277 277 277 277 277 277 276 277 277 278 278 279 279 279 279 279 280 280 280 281 281
285 285 284 283 282 281 280 280 279 279 279 278 278 277 277 277 276 276 276 276 276 276 276 276 276 276 276 276 277 278 278 278 278 278 278 279 279 279 279 279 280 280
285 285 284 282 281 280 279 279 278 278 277 277 277 276 276 276 275 275 275 275 275 275 275 275 275 275 275 276 277 277 278 278 278 278 278 278 278 278 278 279 279 279
284 284 283 281 280 279 279 278 277 277 276 276 276 275 275 275 274 274 274 274 273 273 273 273 273 273 274 275 276 276 277 277 277 277 277 277 277 277 277 278 278 278
283 282 281 280 279 278 277 277 276 276 275 275 275 274 274 274 273 273 272 272 272 271 271 272 272 272 273 273 274 275 275 275 275 275 275 276 276 276 276 276 277 277
281 280 279 278 277 277 276 275 275 275 274 274 274 273 273 272 272 271 271 270 270 270 270 270 270 270 271 272 272 273 273 274 274 274 274 274 274 275 275 275 275 275
279 278 277 276 275 275 274 274 274 273 273 272 272 271 271 270 270 269 269 268 268 268 268 268 268 268 269 270 270 271 272 272 272 272 272 272 272 272 272 273 273 273
277 276 275 274 274 273 273 273 272 271 270 270 270 270 269 269 268 268 267 267 267 267 266 266 266 267 267 268 269 270 270 270 270 270 270 270 270 270 270 271 271 272
275 274 273 273 272 272 271 271 270 269 269 268 268 268 267 267 266 266 266 266 265 265 265 265 265 265 266 267 268 269 269 269 269 269 269 269 269 269 270 270 270 271
273 272 272 272 271 271 270 269 268 268 268 267 266 266 266 265 265 265 265 264 264 264 264 264 265 265 265 266 267 267 268 268 268 268 268 269 269 269 269 270 270 271
272 271 271 271 270 269 268 267 267 267 267 266 265 265 264 264 264 264 264 264 264 264 264 264 264 264 264 265 266 267 268 268 268 268 269 269 269 269 269 269 270 270
271 271 270 270 269 268 267 266 266 266 266 265 264 264 264 263 263 263 263 263 263 263 263 263 263 263 263 264 265 267 267 268 268 268 268 268 268 269 269 269 269 269

ECMWFNIL_925_thetae_027.txt.gz
Theta_e
286 286 285 285 285 285 285 285 285 285 285 285 285 285 285 285 285 285 285 285 286 285 285 285 285 286 286 285 286 285 286 285 285 285 285 285 286 286 287 287 288 289
286 286 285 285 285 285 285 285 285 285 285 284 285 284 285 285 285 285 285 285 285 285 285 285 285 285 285 285 285 285 285 285 285 285 285 285 285 285 285 285 285 286
286 285 285 285 285 285 285 285 285 285 284 284 284 284 284 284 284 285 284 284 284 284 284 284 284 284 284 284 284 284 284 285 285 285 285 285 285 285 285 285 285 285
285 285 285 285 285 285 285 285 285 285 285 284 284 284 284 284 284 284 284 284 284 284 284 284 284 284 284 284 284 284 284 284 284 284 284 284 284 284 284 284 284 284
285 285 285 284 284 284 284 284 284 284 284 284 284 284 284 284 284 284 284 284 284 284 283 283 283 283 282 282 282 282 282 282 283 282 283 283 283 283 283 283 283 284
285 285 284 284 284 284 283 283 283 283 283 283 283 283 283 283 283 283 283 283 283 283 283 283 283 283 282 282 281 281 281 281 281 281 281 281 282 282 282 282 282 282
285 285 284 284 284 283 283 283 283 283 283 283 283 283 283 283 282 282 282 282 282 282 282 282 283 282 282 282 282 281 281 280 280 280 280 280 280 281 281 281 281 281
285 285 285 284 284 284 283 283 283 283 283 283 283 283 282 282 282 282 281 281 281 281 281 281 281 281 281 280 280 281 281 281 281 280 280 280 280 279 280 280 280 280
285 285 285 285 284 284 283 283 283 283 283 283 283 282 282 282 281 281 281 281 280 280 280 280 280 279 279 279 279 279 279 280 280 280 280 280 280 280 280 280 279 280
286 285 285 285 285 284 283 283 282 282 282 282 282 282 281 281 281 280 280 280 279 279 279 279 278 278 278 277 277 277 277 278 278 278 279 279 279 280 280 280 279 280
286 285 285 285 285 284 283 283 282 282 282 282 281 281 281 281 280 280 279 279 278 278 278 278 277 277 277 277 277 276 276 277 277 277 277 278 278 278 279 279 279 279
285 285 285 285 285 285 284 283 282 282 282 282 281 281 281 280 280 279 279 278 278 278 278 277 277 276 276 276 276 276 276 276 276 277 277 277 278 278 278 278 279 279
285 285 285 285 285 285 285 283 283 282 282 282 281 281 280 280 280 279 279 278 278 278 278 277 276 276 275 275 275 275 276 276 277 277 277 277 278 278 278 278 278 278
285 285 285 285 285 285 284 283 282 282 282 281 281 280 280 279 279 278 278 278 278 278 277 277 276 275 275 274 274 275 276 276 277 277 277 277 277 277 277 277 278 278
285 285 285 285 284 284 283 282 282 281 281 280 280 279 279 278 278 278 278 278 278 278 277 276 275 274 274 274 274 275 276 276 276 276 276 276 276 276 276 277 277 277
285 285 285 284 284 284 283 282 281 281 281 280 280 279 278 278 277 277 277 277 277 277 276 275 274 273 273 273 274 275 275 275 275 275 275 275 275 275 275 275 275 275
285 285 284 284 284 283 282 281 281 281 280 280 280 279 278 278 277 277 276 275 276 276 275 274 273 272 272 272 273 274 274 274 274 274 274 274 274 274 274 274 274 274
285 284 284 284 284 282 281 281 280 280 280 279 279 278 278 278 277 276 275 275 275 274 274 273 272 271 270 271 272 272 273 273 273 273 273 273 273 273 273 273 273 273
284 284 284 284 283 281 281 280 280 280 279 278 278 278 277 277 276 276 275 274 273 273 273 271 270 269 269 270 271 271 272 272 272 272 272 272 272 272 272 272 272 271
284 284 284 283 281 280 280 280 279 279 278 277 277 276 276 276 275 275 274 273 272 271 271 270 269 269 268 269 270 270 271 271 271 271 271 271 271 270 270 270 270 270
284 284 282 281 280 279 279 279 278 278 277 276 276 275 275 274 274 273 272 271 270 269 270 270 269 268 268 268 269 269 270 271 271 270 270 269 269 269 269 269 269 269
283 282 280 279 279 279 278 278 277 276 276 275 275 274 274 273 273 272 271 270 269 268 268 268 268 268 268 268 268 269 270 269 269 269 269 268 268 268 268 268 268 268
281 280 279 278 278 277 277 276 275 275 274 273 273 273 272 272 271 270 269 268 268 267 267 267 267 267 267 267 267 268 268 268 268 268 268 268 268 268 268 268 268 269
279 278 278 277 276 276 275 275 274 273 273 272 271 271 270 270 269 268 267 267 266 266 266 266 267 267 266 266 266 267 268 268 268 268 268 268 268 268 268 268 268 268
278 277 276 275 275 275 274 273 273 272 272 271 270 269 268 268 266 266 266 265 265 266 265 265 266 266 266 265 265 267 267 268 268 268 268 268 268 268 268 268 268 268
276 275 274 274 274 273 273 272 272 271 271 270 269 267 266 266 265 264 264 264 264 265 264 264 265 265 265 265 265 266 268 268 269 269 268 268 268 268 268 268 268 269

ECMWFNIL_925_thetae_030.txt.gz
Theta_e
286 286 286 285 285 285 285 285 285 285 285 285 285 284 284 284 284 284 284 284 284 284 284 284 284 284 284 284 284 284 284 283 283 284 283 283 284 284 284 284 284 284
285 285 285 285 285 285 285 285 285 284 284 284 284 284 284 284 284 284 284 284 283 283 283 283 283 284 284 284 284 284 284 284 283 283 283 283 283 283 283 283 283 283
285 285 285 285 285 285 284 284 284 284 284 284 284 284 283 283 283 283 283 283 283 283 283 283 283 283 283 283 283 283 283 283 283 283 283 283 283 283 283 283 283 283
285 285 285 285 285 284 284 284 284 284 284 283 283 283 283 283 283 283 283 283 283 283 283 283 283 282 282 282 282 282 282 282 282 283 283 283 283 283 283 283 283 283
285 285 285 285 285 284 284 285 284 284 284 284 283 283 283 283 283 283 283 283 283 282 282 282 282 282 282 282 282 282 282 282 282 282 283 283 283 282 282 282 282 283
285 285 285 285 284 284 284 284 284 284 284 284 283 283 283 283 283 283 283 283 282 282 282 282 282 282 282 282 282 282 282 283 283 283 283 283 283 282 282 281 280 280
285 285 285 284 284 284 284 284 284 284 284 283 283 283 283 283 282 282 282 282 282 282 282 282 282 282 282 282 282 282 282 282 282 282 282 282 282 282 282 281 281 280
285 285 285 285 284 284 284 284 284 283 283 283 283 282 282 282 282 282 282 281 281 281 281 281 281 281 281 281 281 281 281 281 281 281 280 280 281 281 281 280 280 281
286 286 285 285 285 285 284 284 283 283 283 283 282 282 282 282 282 281 281 281 281 281 280 280 280 280 280 280 280 279 280 280 279 279 279 279 279 279 279 279 279 279
285 285 285 285 285 285 284 284 283 283 283 282 282 282 282 282 281 281 281 280 280 280 280 279 279 279 279 279 278 278 278 278 278 278 277 277 277 277 277 277 277 278
285 285 285 285 285 285 285 285 284 284 283 282 282 282 282 281 281 280 280 280 279 279 279 278 278 278 278 277 277 277 277 276 276 276 277 277 277 277 277 277 277 277
285 285 285 285 285 285 285 285 285 284 283 282 282 282 282 281 281 281 280 280 279 279 278 278 278 277 277 277 276 276 276 276 276 276 276 276 276 276 276 276 276 276
285 285 285 285 285 285 285 285 285 284 283 282 282 282 282 282 281 281 280 280 279 279 279 278 278 277 276 276 276 276 276 275 275 275 275 275 275 275 275 275 275 275
285 285 285 285 285 285 285 285 285 284 283 282 282 282 281 281 281 280 280 280 279 279 278 278 277 277 276 276 275 275 275 275 274 275 274 274 274 274 274 274 274 274
284 284 284 284 285 285 285 285 285 284 283 282 281 281 281 280 280 280 279 279 279 278 278 277 277 276 275 275 274 274 274 274 274 274 274 274 274 273 273 273 273 273
284 284 284 285 285 285 285 285 285 284 282 282 281 281 280 280 279 279 279 278 278 278 277 277 276 275 274 274 273 273 273 273 273 273 273 273 273 272 272 272 272 272
284 284 284 285 285 285 285 284 284 283 282 282 281 280 280 280 279 279 278 278 277 277 277 276 275 275 274 273 273 273 272 273 273 273 272 272 272 272 272 272 272 272
284 284 284 285 285 285 284 284 284 283 282 281 281 280 280 279 279 278 278 277 277 277 276 276 275 274 273 273 273 272 272 273 273 272 272 272 272 271 271 271 271 271
284 284 284 284 284 284 284 284 283 282 281 281 280 280 279 279 278 278 277 277 277 276 276 275 275 274 273 273 272 271 271 272 272 272 272 271 271 271 270 270 270 269
284 284 284 284 284 284 283 283 282 281 280 280 280 279 279 278 278 278 277 277 276 276 275 275 274 273 273 272 271 270 271 272 272 271 271 270 270 269 269 269 269 269
284 283 283 283 283 283 282 281 280 280 280 279 279 278 278 277 277 277 276 276 275 275 275 274 273 272 272 272 271 270 270 271 271 269 269 269 269 269 269 269 268 268
283 283 283 283 282 281 280 280 279 279 279 278 278 277 276 276 276 275 275 275 274 274 274 273 273 272 272 271 270 269 269 270 269 268 268 268 268 268 268 268 268 268
282 282 282 282 280 279 279 279 279 278 278 277 276 276 275 275 275 275 274 274 273 273 272 272 272 272 271 271 269 269 269 269 268 268 268 268 268 268 268 268 268 268
282 282 281 280 279 279 278 278 278 278 277 276 275 275 275 274 274 274 274 273 273 272 271 271 272 271 271 270 269 269 268 268 268 268 268 268 268 268 269 269 268 268
281 280 279 278 278 278 278 278 277 277 276 275 274 274 274 274 274 274 274 273 272 272 271 270 271 271 271 270 270 268 268 269 269 268 268 269 269 269 269 269 269 269
280 279 278 278 278 278 277 277 276 276 275 274 274 273 273 273 273 272 273 273 272 272 271 270 270 271 270 270 269 268 268 269 269 269 269 269 269 269 269 269 270 270

ECMWFNIL_925_thetae_033.txt.gz
Theta_e
286 286 286 286 286 286 286 286 286 285 285 285 284 284 284 284 284 284 284 284 284 284 284 284 284 284 284 284 284 284 283 283 283 283 283 283 283 283 283 283 283 283
286 286 286 286 286 285 285 285 285 285 285 284 284 284 284 284 284 284 284 284 284 284 284 284 283 284 284 283 283 283 283 283 283 283 283 283 283 283 284 284 283 283
286 286 286 286 285 285 285 285 285 285 284 284 284 284 283 283 283 283 283 283 283 283 283 283 283 283 283 283 283 283 283 283 283 283 283 283 283 283 283 283 283 282
285 285 285 285 285 285 285 285 284 284 284 284 284 283 283 283 283 283 283 283 283 283 283 283 283 283 283 283 283 283 283 283 283 283 283 283 283 282 282 282 282 282
285 285 285 285 285 285 284 284 284 284 284 284 284 284 284 284 284 284 284 284 284 283 283 283 283 283 283 283 283 283 283 283 283 283 283 283 283 283 282 282 282 282
285 285 285 285 285 284 284 284 284 284 284 284 284 284 284 284 284 284 284 284 284 283 283 283 283 283 283 283 283 282 282 282 283 283 283 283 283 283 282 282 282 282
285 285 285 285 284 284 284 284 284 284 284 284 284 284 284 284 284 284 284 283 283 283 283 283 282 282 282 282 282 282 282 282 282 282 282 282 282 282 282 281 281 281
285 285 285 285 285 285 285 285 285 285 285 285 284 284 284 284 284 283 283 283 283 282 282 282 282 281 281 281 281 281 281 281 281 281 281 281 281 281 281 280 280 279
285 285 285 285 285 286 285 286 286 285 285 285 285 284 284 284 283 283 283 282 282 282 281 281 281 281 280 280 280 280 280 280 280 280 280 280 280 279 279 279 278 278
286 286 286 286 286 286 286 286 286 286 285 285 285 284 284 283 283 282 282 282 281 281 280 280 280 280 280 279 279 279 279 279 279 279 278 278 278 278 277 277 277 276
286 286 286 286 286 286 286 286 286 286 285 285 284 283 283 283 282 282 281 281 280 280 280 279 279 279 279 279 278 278 278 278 277 277 277 277 276 276 276 276 275 275
286 286 286 286 285 285 285 285 285 285 285 284 283 283 282 282 282 281 281 281 280 280 280 279 279 279 278 278 278 278 277 277 277 276 276 276 275 275 275 275 274 274
286 286 286 285 285 285 285 285 285 284 284 283 282 282 282 282 282 281 281 281 280 280 279 279 279 278 278 278 277 277 277 276 276 275 275 275 275 275 275 274 274 274
286 285 285 285 285 285 284 284 284 284 283 282 282 281 282 282 282 282 281 281 280 279 279 278 278 278 277 277 277 277 276 276 275 275 275 275 275 274 274 274 274 273
285 285 285 284 284 284 284 284 283 283 282 282 281 282 282 282 282 282 281 280 280 279 279 278 278 277 277 277 276 276 275 275 274 274 274 274 274 274 274 273 273 273
285 285 284 284 284 284 284 283 283 282 282 282 282 282 282 282 282 281 281 280 280 279 279 278 278 277 277 276 275 275 274 274 274 273 273 273 273 273 273 273 273 272
285 285 284 284 284 284 283 283 282 282 281 281 281 281 281 281 281 281 281 280 279 279 278 278 277 277 276 275 275 274 274 273 273 273 272 272 272 272 272 272 272 271
285 285 284 284 284 283 283 282 282 281 281 281 281 281 281 281 281 281 280 280 279 279 278 277 277 276 276 275 274 274 274 273 272 273 272 272 272 272 271 271 271 270
285 285 284 284 283 283 282 282 281 281 280 280 280 281 281 281 280 280 280 279 279 278 278 277 276 276 275 274 274 274 273 272 272 273 272 272 272 271 270 270 270 270
285 285 284 284 283 282 282 281 281 280 280 280 280 281 280 280 280 280 279 279 278 278 277 276 276 275 275 274 273 273 273 272 272 272 271 271 270 270 269 269 269 269
285 284 284 283 282 282 281 281 281 280 280 280 280 280 280 280 279 279 279 278 278 277 276 276 275 275 274 273 273 273 272 271 271 271 270 270 269 269 269 269 269 269
285 284 283 283 282 281 281 281 280 279 279 280 280 280 279 279 279 279 278 277 277 276 276 275 275 274 273 273 273 272 271 270 270 269 269 269 269 268 268 268 269 269
284 284 283 282 281 281 281 280 280 279 280 280 280 279 279 279 278 278 277 277 276 275 275 275 274 273 273 272 272 272 271 269 269 269 269 269 269 269 269 269 269 269
284 283 282 281 281 281 281 280 279 279 279 279 279 279 278 278 277 277 277 276 275 275 274 274 274 273 272 272 272 272 271 269 268 269 269 269 269 269 269 269 269 269
283 282 281 281 281 281 280 279 279 279 279 278 278 277 277 277 277 276 276 275 275 274 274 273 273 273 272 272 272 272 270 269 269 269 269 269 269 269 269 269 269 270
281 281 281 281 280 280 279 279 279 278 278 277 277 276 276 276 276 275 275 275 274 274 273 273 273 272 272 271 272 271 269 269 269 269 269 269 269 269 270 270 271 271

ECMWFNIL_925_thetae_036.txt.gz
Theta_e
287 287 287 286 286 286 286 286 285 285 285 284 284 284 284 284 284 284 284 284 284 284 284 284 284 284 284 284 284 284 284 283 283 283 283 284 284 284 284 284 284 284
287 287 286 286 286 286 286 285 285 285 284 284 284 284 284 284 284 284 284 284 284 284 284 284 284 283 283 283 283 283 283 283 283 283 283 283 283 283 283 283 283 283
286 286 286 286 286 285 285 285 285 284 284 284 284 284 284 284 284 284 284 284 284 284 284 283 284 283 283 283 283 283 283 283 283 283 283 283 283 283 283 282 282 282
286 286 286 286 285 285 285 285 284 284 284 284 284 284 284 284 284 284 284 284 284 284 284 284 284 284 283 283 283 283 283 283 283 283 283 283 283 283 283 282 282 282
286 286 286 285 285 285 284 284 284 284 284 284 284 284 284 284 284 284 284 284 284 284 284 284 284 284 283 283 283 283 283 282 282 282 282 282 282 282 282 282 282 282
286 285 285 285 285 284 284 284 284 284 284 284 285 285 285 285 285 286 285 285 285 285 284 284 284 284 283 283 283 282 282 282 282 282 282 282 282 282 282 282 282 281
285 285 285 285 284 284 285 285 285 285 285 286 286 286 287 287 287 286 286 286 285 285 284 284 284 283 283 283 282 282 282 282 281 281 281 281 281 281 281 281 281 280
285 285 285 284 285 285 285 285 286 286 287 287 287 287 287 287 287 286 286 286 285 285 284 284 283 283 282 282 282 281 281 281 281 281 281 281 281 281 280 280 280 279
285 285 285 285 285 285 286 286 287 287 287 287 287 287 286 286 286 286 285 285 285 284 284 283 283 282 282 281 281 281 280 280 280 280 280 280 280 280 280 279 279 278
285 285 285 285 286 286 287 287 287 287 287 286 286 286 285 285 285 285 285 284 284 284 283 283 282 281 281 280 280 280 280 279 279 279 279 279 279 279 278 278 278 278
285 285 285 286 286 287 287 287 287 287 286 286 285 285 284 284 284 284 284 284 283 283 283 282 282 281 280 280 279 279 279 278 278 278 278 278 277 277 277 277 277 277
285 286 286 286 286 287 287 287 286 286 286 285 285 284 284 283 283 283 283 283 283 283 282 282 281 280 280 279 279 278 278 278 278 277 277 277 276 276 276 276 276 276
286 286 286 286 287 287 287 286 286 285 285 285 284 284 283 283 282 282 282 282 282 282 282 281 281 280 279 279 279 278 278 277 277 276 276 276 276 276 276 276 276 276
286 286 286 286 287 287 286 286 285 285 285 285 284 284 283 282 281 281 281 281 281 281 281 281 280 279 279 278 278 277 277 277 276 276 276 276 276 276 276 275 275 275
286 286 286 286 287 286 286 285 285 284 284 285 284 284 282 281 281 281 281 281 281 281 281 280 279 279 278 278 277 277 276 276 275 275 275 275 275 275 275 275 275 275
286 286 286 286 286 286 285 285 284 284 284 284 284 283 282 281 280 280 280 280 280 280 280 279 279 278 278 277 277 276 276 275 275 275 274 274 275 275 275 275 275 274
286 286 286 286 286 285 285 284 284 284 284 284 284 283 282 281 280 280 280 279 279 279 279 278 278 277 277 277 276 276 275 275 274 273 273 274 274 274 275 274 274 274
286 286 286 286 285 285 284 284 284 284 284 284 284 283 281 280 280 280 279 279 279 278 278 278 277 277 277 276 276 275 275 274 274 273 273 273 274 274 274 274 274 273
286 286 286 285 285 285 284 284 283 283 283 283 283 282 281 280 280 279 279 278 278 278 278 277 277 276 276 276 275 275 275 274 273 273 273 273 273 273 273 273 272 272
286 286 285 285 285 284 284 283 283 283 283 283 283 282 281 280 279 279 278 278 277 277 277 277 276 276 276 275 275 275 274 273 273 273 273 273 272 272 272 272 271 271
286 285 285 285 285 284 284 283 283 283 283 283 282 282 281 280 279 279 278 277 277 277 277 276 276 276 275 275 275 274 274 273 272 272 272 271 271 271 271 271 271 271
286 285 285 285 284 284 283 283 283 282 282 282 282 281 280 279 279 278 278 277 277 276 276 276 276 275 275 274 274 274 273 273 272 271 270 270 270 270 270 270 270 270
286 285 285 285 284 283 283 283 282 282 281 282 281 281 280 279 278 278 277 277 276 276 276 275 275 275 274 274 274 273 273 272 271 270 270 270 270 270 270 270 270 271
286 285 285 284 284 283 283 282 281 281 281 281 281 280 279 279 278 277 277 277 276 276 275 275 275 274 274 274 273 273 273 272 270 270 270 270 270 270 270 271 271 271
286 286 285 284 284 284 283 282 281 281 281 281 280 279 279 278 277 277 277 276 276 275 275 274 274 274 273 273 273 273 272 271 270 270 270 270 270 271 271 271 271 271
286 286 285 285 284 283 282 281 281 281 280 280 279 279 278 278 277 277 276 276 275 275 274 274 274 273 273 273 273 273 272 271 270 270 270 270 271 271 271 271 271 272

ECMWFNIL_925_thetae_039.txt.gz
Theta_e
289 289 288 288 288 288 287 287 286 286 285 285 284 284 284 284 284 284 284 284 284 284 284 284 284 284 284 284 284 283 283 283 283 283 283 283 283 283 283 283 283 283
288 288 288 287 287 287 286 286 286 285 285 285 285 284 284 284 284 284 284 284 284 284 284 284 284 284 283 283 283 283 283 282 282 282 282 282 282 282 282 282 282 282
288 288 287 287 287 286 286 286 286 285 285 285 284 284 284 284 284 284 284 284 284 284 284 284 284 284 284 283 283 283 282 283 282 282 282 282 282 282 282 282 282 282
287 287 287 287 286 286 286 286 285 285 285 284 284 284 284 284 284 285 285 285 285 285 285 285 285 284 284 284 284 283 283 283 283 282 282 282 282 282 282 282 282 282
287 287 286 286 286 286 285 285 285 284 284 284 284 284 285 285 286 286 286 286 286 286 286 286 286 285 285 285 284 284 283 283 282 283 282 282 282 282 282 282 282 282
286 286 286 286 286 285 285 285 285 284 284 285 285 286 286 286 286 287 287 287 287 287 287 287 287 286 286 286 285 284 284 283 283 283 282 282 282 281 281 281 281 281
286 286 286 286 285 285 285 284 284 284 285 286 287 287 287 287 287 287 287 287 287 287 287 287 287 287 286 286 285 285 284 283 283 282 282 282 281 281 281 280 280 280
286 286 285 285 285 285 284 284 285 285 286 287 287 287 287 287 287 287 287 287 287 287 287 286 286 286 285 285 284 284 283 283 282 282 281 281 281 281 280 280 280 280
285 285 285 285 284 284 284 285 285 286 287 287 287 287 287 287 287 287 287 287 287 286 286 286 285 285 284 284 283 283 282 282 281 281 281 280 280 280 280 279 279 279
285 285 285 284 284 284 284 285 286 287 287 287 287 287 287 287 287 287 287 287 286 286 285 284 284 283 283 283 283 282 282 281 281 280 280 280 279 279 279 279 278 278
285 285 285 284 284 284 284 285 286 287 287 287 287 287 287 287 287 287 286 286 285 284 284 283 283 283 283 282 282 282 281 281 280 280 279 279 278 278 278 278 278 278
285 285 285 284 284 284 285 286 287 287 287 287 287 287 287 287 287 286 285 285 284 283 283 283 282 282 282 282 281 281 281 280 280 279 279 278 278 278 277 277 277 277
285 285 285 284 284 284 285 286 287 287 287 287 287 287 287 286 286 285 284 284 283 283 283 282 282 281 281 281 281 280 280 279 279 278 278 278 277 277 277 277 277 277
285 285 285 284 284 285 286 287 287 287 287 287 287 286 286 286 285 284 283 283 282 282 282 282 281 281 281 280 280 279 279 279 278 278 277 277 277 277 277 277 277 277
285 285 285 284 285 285 286 287 287 287 287 287 286 286 286 285 285 284 283 282 282 282 282 282 281 281 280 280 279 279 279 278 277 277 277 277 276 276 276 276 277 277
285 285 285 285 285 286 286 286 286 286 287 287 286 286 285 285 284 283 283 282 282 281 281 282 281 281 280 279 279 278 278 278 277 277 276 276 276 276 276 276 276 276
285 285 285 285 285 286 286 286 286 286 286 286 286 285 285 284 284 283 283 282 281 281 281 281 281 281 280 279 278 278 278 277 277 276 276 275 275 275 275 276 276 276
285 285 285 285 286 286 286 286 286 286 286 286 286 285 284 284 283 283 283 282 282 281 281 281 281 280 280 279 278 278 277 276 276 276 275 275 275 275 275 276 276 276
285 285 285 285 286 286 286 286 286 286 286 286 285 285 284 283 283 283 283 282 282 281 281 281 281 280 279 278 278 277 277 276 275 275 274 274 274 274 275 275 275 275
285 285 285 285 285 286 285 285 286 286 286 286 285 284 284 283 282 282 283 282 281 281 281 281 281 280 279 278 277 277 276 275 275 274 273 273 273 273 274 274 274 274
285 285 285 285 285 285 285 285 285 286 285 285 284 284 283 283 282 282 282 282 281 281 280 280 280 279 278 277 277 276 275 275 274 274 273 273 273 273 273 273 273 273
285 285 285 285 285 285 285 285 285 285 285 285 284 283 283 282 282 282 282 281 281 280 280 280 280 279 277 277 276 276 275 274 274 274 273 273 273 273 273 272 272 272
286 285 285 285 285 285 285 285 285 284 284 284 283 283 282 282 281 282 281 281 280 280 280 280 279 278 277 276 276 275 274 274 273 273 273 273 272 272 272 272 272 272
286 285 285 285 285 285 285 285 284 284 283 283 283 282 281 281 281 281 281 280 280 280 279 279 278 277 276 275 275 274 274 273 273 272 272 271 271 271 271 271 272 272
286 286 286 285 285 285 285 285 284 284 283 282 282 281 281 281 280 280 280 279 279 279 278 278 277 277 275 275 274 274 273 273 272 271 271 271 271 271 271 272 272 272
286 286 286 286 286 286 286 285 284 283 282 282 281 281 280 280 279 279 279 279 279 278 278 277 277 276 275 274 274 274 273 272 271 271 271 271 271 271 271 271 272 272

ECMWFNIL_925_thetae_042.txt.gz
Theta_e
290 290 289 288 288 287 287 287 287 286 286 286 286 285 285 285 285 285 285 285 285 285 285 285 285 285 285 285 284 284 284 284 283 283 283 283 283 282 282 283 282 282
290 289 289 288 288 288 288 287 287 287 286 286 286 286 285 285 285 285 285 285 285 285 285 285 285 285 285 285 285 284 284 284 284 283 283 283 283 282 282 282 282 282
290 289 289 289 289 288 288 287 287 287 286 286 286 286 285 285 285 285 285 286 286 286 286 286 286 286 286 286 285 285 285 285 284 284 283 283 283 282 282 282 282 282
289 289 289 289 289 288 287 287 286 286 286 286 285 285 285 285 285 286 286 286 287 287 287 287 287 287 286 286 286 286 286 286 285 285 284 284 283 282 282 282 282 281
289 289 289 288 288 287 287 287 286 286 286 285 285 285 285 286 286 287 287 287 287 287 287 287 287 287 287 286 286 286 286 286 286 285 285 284 283 282 282 282 282 281
288 288 288 288 287 287 287 286 286 286 285 285 285 285 286 286 287 287 287 287 287 287 287 287 287 286 286 286 286 286 286 286 286 285 285 284 283 282 282 281 281 281
288 287 287 287 286 286 286 286 285 285 285 285 285 286 287 287 287 287 287 287 287 287 287 287 287 286 286 286 286 286 286 286 285 285 285 284 283 282 281 281 280 280
287 287 287 286 286 286 286 285 285 285 285 285 286 287 287 287 287 287 287 286 287 287 287 287 287 286 286 286 286 286 285 285 285 284 284 283 283 282 281 280 280 280
287 286 286 286 286 285 285 285 285 285 286 286 287 287 287 287 287 287 287 286 287 287 287 287 286 286 286 286 286 285 285 285 284 284 283 283 282 281 281 280 280 280
286 286 286 286 285 285 285 285 285 285 286 287 287 287 287 286 286 286 286 287 287 287 287 287 286 286 286 286 285 285 285 284 284 283 283 282 282 281 280 280 280 279
286 286 286 285 285 285 285 284 285 286 286 287 287 287 286 286 286 286 286 287 287 287 287 286 286 286 286 286 285 285 284 284 283 283 283 282 281 281 280 279 279 279
286 286 285 285 285 285 285 285 285 286 286 286 287 287 286 286 286 286 287 287 287 287 287 286 286 286 286 285 285 285 284 283 283 283 282 282 281 281 280 279 279 278
286 286 285 285 285 285 284 285 286 286 286 286 286 286 287 287 287 287 287 287 287 287 286 286 286 286 285 285 285 284 283 283 282 282 282 281 281 280 279 279 278 278
286 286 285 285 285 285 284 285 286 286 286 286 286 286 287 287 287 287 287 287 286 286 286 286 286 285 285 285 284 283 282 282 282 281 281 281 280 280 279 279 278 278
286 285 285 285 284 284 284 285 286 286 286 286 286 286 287 287 287 287 287 287 286 286 286 286 285 285 285 284 283 282 281 281 281 281 281 280 280 280 279 279 278 277
285 285 285 285 284 284 284 285 285 286 286 286 286 286 287 287 287 287 286 286 286 286 286 285 285 285 284 284 283 282 281 281 281 280 280 280 280 280 279 278 278 277
285 285 285 284 284 284 284 284 285 286 286 286 286 286 287 287 286 286 286 286 286 286 285 285 285 285 284 283 282 281 281 281 280 280 280 280 279 279 278 278 277 277
285 285 285 284 284 284 284 285 285 286 286 286 286 286 287 286 286 286 286 286 285 285 285 285 285 284 284 283 281 281 280 280 280 279 279 279 279 278 278 277 277 276
285 285 285 284 285 285 284 284 285 286 286 286 286 286 286 286 286 286 286 285 285 285 285 285 284 284 283 282 281 280 279 278 278 278 278 278 278 277 277 276 276 275
285 285 285 285 285 285 284 285 285 285 286 286 286 286 286 286 286 285 285 285 285 285 284 284 284 283 282 281 280 279 278 277 277 278 278 277 277 277 276 276 275 275
285 285 285 285 285 285 285 285 285 285 285 286 286 286 286 286 285 285 285 285 285 284 284 284 283 283 281 280 279 279 278 277 277 277 277 277 276 276 275 275 274 274
286 285 285 285 285 285 285 285 285 285 285 285 285 285 285 285 284 285 285 285 284 284 284 284 283 282 281 280 279 278 277 277 277 277 276 276 276 275 275 274 274 274
286 286 286 285 285 285 285 285 285 285 285 285 285 285 285 284 284 284 284 284 283 283 283 283 283 282 280 279 278 277 277 276 276 276 276 276 275 275 274 274 274 273
286 286 286 285 285 285 285 285 285 285 285 285 285 285 285 285 284 284 283 283 283 282 283 283 282 281 280 279 278 277 276 276 276 275 275 275 275 274 273 273 273 272
286 286 286 286 285 285 285 285 285 285 285 285 285 284 284 284 283 283 282 282 282 282 282 282 282 281 279 278 277 277 276 276 275 275 274 274 274 273 272 272 272 272
286 286 286 286 286 285 285 285 285 285 285 284 284 284 283 283 282 282 281 281 281 281 281 281 281 280 279 278 277 276 276 275 275 274 274 274 273 272 271 271 271 271

ECMWFNIL_925_thetae_045.txt.gz
Theta_e
291 290 289 289 289 289 289 289 288 288 288 288 287 287 287 287 286 286 287 286 286 286 286 286 287 287 287 287 287 287 286 286 286 285 285 285 284 284 284 283 283 283
290 289 289 289 289 289 289 289 288 288 288 287 287 287 287 286 286 286 286 286 286 286 287 287 287 287 287 287 287 287 287 286 286 286 286 285 285 285 284 283 283 283
290 289 289 289 289 289 288 288 288 288 287 287 287 287 286 286 286 286 286 286 286 287 287 287 287 287 287 287 287 287 287 286 286 286 286 286 285 285 284 284 283 283
289 289 289 289 289 289 288 288 287 287 287 286 286 286 286 286 285 285 286 286 287 287 287 287 287 287 287 287 287 287 286 286 286 286 286 285 285 285 284 284 283 282
289 289 288 288 289 288 288 287 287 287 286 286 286 286 285 285 285 286 286 287 287 287 287 287 287 287 287 287 287 286 286 286 286 286 286 285 285 285 284 284 283 282
289 288 288 288 288 288 288 287 287 286 286 286 285 285 285 285 286 286 287 287 287 287 287 287 287 287 287 287 287 286 286 286 286 286 286 285 285 284 284 283 282 282
289 288 288 288 288 288 288 287 287 286 286 285 285 285 285 286 286 287 287 287 287 287 287 287 287 287 287 287 287 287 286 286 286 286 285 285 284 284 283 283 282 281
289 289 289 289 288 288 287 287 286 286 285 285 285 285 286 286 287 287 287 287 287 287 287 287 287 287 287 287 287 287 286 286 286 286 285 285 284 284 283 283 282 281
289 289 289 288 288 288 287 287 286 285 285 285 285 286 286 287 287 287 287 287 287 287 287 287 287 287 287 287 287 287 287 286 286 286 285 285 284 284 283 283 282 281
289 289 288 288 288 287 287 286 285 285 285 285 285 286 287 287 287 287 287 287 287 287 287 287 287 287 287 287 286 286 286 286 286 285 285 285 285 284 283 283 282 281
288 288 287 287 287 287 286 286 285 285 285 285 286 287 287 287 287 287 287 287 287 287 287 287 287 287 287 287 286 286 286 286 286 285 285 285 285 284 283 282 282 281
287 287 287 287 287 286 286 285 285 285 285 285 286 287 287 287 287 287 287 287 287 287 287 287 287 286 286 286 286 286 286 286 286 285 285 285 284 283 283 282 281 280
287 287 286 286 286 286 286 285 285 285 285 286 287 287 287 287 287 287 287 287 287 287 287 287 286 286 286 286 286 286 286 286 285 285 285 284 284 283 282 282 281 280
287 286 286 286 286 286 285 285 285 285 285 286 287 287 287 287 287 287 287 287 287 287 287 286 286 286 286 286 286 286 286 285 285 285 285 284 283 283 282 281 280 280
286 286 286 286 286 286 285 285 284 284 285 286 287 287 287 287 287 287 287 286 286 286 286 286 286 286 286 286 286 286 286 285 285 285 284 284 283 283 282 281 280 280
286 286 286 286 286 285 285 285 284 284 285 286 287 287 287 287 287 286 286 286 286 286 286 286 286 286 286 286 286 286 285 285 285 284 284 283 283 282 282 281 280 279
286 286 286 286 286 285 285 285 284 284 285 286 286 286 286 286 286 286 286 286 286 286 286 286 286 286 286 286 286 285 285 285 285 284 283 283 282 282 281 281 280 279
286 286 285 285 285 285 285 284 284 284 285 285 285 286 286 286 285 285 286 286 286 286 286 286 286 286 286 285 285 285 285 285 284 284 283 282 282 281 281 280 280 279
286 286 285 285 285 285 284 284 284 284 284 285 285 286 286 285 285 285 285 285 286 286 286 286 286 286 286 285 285 284 284 284 284 284 283 282 282 281 280 280 279 279
285 285 285 285 285 284 284 284 284 284 284 284 285 285 285 285 285 285 285 285 286 286 286 286 286 286 285 285 285 284 283 283 283 283 282 282 281 281 280 279 279 279
285 285 285 285 284 284 284 284 284 283 284 284 284 285 285 286 285 285 285 285 286 286 285 286 286 285 285 285 284 284 282 282 282 282 281 281 281 280 280 279 279 278
285 285 285 285 284 284 284 284 283 283 284 284 284 285 285 285 285 285 285 286 286 285 285 285 285 285 285 284 284 283 281 281 281 281 280 280 280 280 279 278 278 278
285 285 285 284 284 284 284 284 284 284 284 284 284 284 284 284 285 285 285 285 285 285 285 285 285 285 284 284 283 282 281 280 280 280 280 280 280 279 278 278 277 277
285 285 285 284 284 284 284 284 284 284 284 284 284 284 284 285 285 285 285 285 285 285 285 285 285 284 284 283 283 282 280 280 280 280 279 279 279 279 278 277 277 277
286 285 285 285 285 284 284 284 284 284 284 284 284 284 284 285 285 285 285 285 284 284 284 284 284 283 283 283 282 281 280 279 279 279 279 279 279 279 278 277 277 276
286 285 285 285 285 285 285 285 285 285 284 284 284 284 284 284 284 284 284 284 284 284 284 283 283 283 282 282 282 281 280 279 279 279 279 280 279 278 278 277 277 276

ECMWFNIL_925_thetae_048.txt.gz
Theta_e
296 294 292 291 290 290 290 290 290 290 289 289 289 288 288 288 288 288 288 288 288 288 287 288 288 288 288 288 288 288 288 288 288 287 287 287 286 286 285 285 284 284
294 292 291 290 290 290 290 290 290 289 289 289 288 288 288 287 287 287 288 287 287 287 287 288 288 288 288 288 288 288 288 288 287 287 287 286 286 286 285 285 284 284
292 291 290 290 290 290 290 289 289 289 289 288 288 288 287 287 287 287 287 287 287 287 287 287 287 288 288 288 288 288 288 287 287 287 286 286 286 286 285 285 284 284
291 290 290 290 290 290 289 289 289 288 288 288 287 287 287 287 287 286 286 286 287 287 287 287 287 288 288 288 287 287 287 287 287 286 286 286 286 286 285 285 284 284
291 290 290 290 290 289 289 289 288 288 288 288 287 287 287 286 286 286 286 286 287 287 287 287 287 287 287 287 287 287 287 287 287 286 286 286 286 285 285 285 284 283
290 290 290 289 289 289 289 288 288 288 288 287 287 287 286 286 286 286 286 287 287 287 287 287 287 287 287 287 287 287 287 287 287 286 286 286 286 285 285 285 284 283
290 289 289 289 289 289 288 288 288 288 287 287 287 286 286 286 286 286 286 287 287 288 288 287 287 287 287 287 287 287 287 287 287 286 286 286 286 285 285 284 284 283
290 289 288 288 288 288 288 288 287 287 287 287 286 286 286 286 286 286 287 287 288 288 287 287 287 287 287 287 287 287 287 287 287 286 286 286 286 285 285 284 283 282
290 289 288 288 288 287 287 287 287 287 287 286 286 286 285 286 286 286 287 287 288 287 287 287 287 287 287 287 287 287 287 287 286 286 286 286 286 285 285 284 283 282
289 289 288 288 287 287 287 287 287 287 286 286 286 286 285 285 286 287 287 287 287 287 287 287 287 287 287 287 287 287 287 287 286 286 286 286 286 286 285 284 284 283
289 289 288 288 287 287 287 287 287 286 286 286 286 286 285 285 286 287 287 287 287 287 287 287 287 287 287 287 287 287 286 286 286 286 286 286 286 285 285 284 284 283
289 289 288 288 287 287 287 287 286 286 286 285 285 285 285 285 286 287 287 287 287 287 287 287 287 287 287 287 287 286 286 286 286 286 286 286 285 285 285 284 284 283
290 289 289 288 288 288 287 287 286 286 286 285 285 285 285 286 286 287 287 287 287 287 287 287 287 287 287 287 287 287 286 286 286 286 286 286 285 285 285 284 284 283
290 289 289 288 288 288 288 287 286 286 285 285 285 285 285 286 287 287 287 287 287 287 287 287 287 287 286 286 286 286 286 286 286 286 286 285 285 285 285 285 284 283
290 289 289 289 288 288 288 287 286 285 285 285 285 285 285 286 287 287 287 287 287 287 287 286 286 286 286 287 287 286 286 286 286 286 286 285 285 285 285 285 284 284
289 289 289 288 288 288 288 287 286 285 285 285 284 285 285 286 287 287 287 287 287 287 286 286 286 286 286 287 287 286 286 286 286 286 285 285 285 285 285 285 284 284
288 288 288 288 288 288 287 287 286 285 284 284 284 284 285 286 286 287 287 287 287 287 286 286 286 286 286 286 286 286 286 286 286 285 285 285 285 285 285 285 284 284
288 287 287 287 287 287 286 286 285 284 284 284 284 284 285 285 286 286 287 287 286 286 286 286 286 286 286 286 286 286 286 285 285 285 285 285 285 285 285 284 284 284
287 287 286 286 286 286 286 285 285 284 284 284 284 284 285 285 286 286 286 286 286 286 286 286 286 286 286 286 286 286 286 285 285 285 285 285 285 284 284 284 284 284
286 286 286 286 286 286 285 285 284 284 284 284 284 284 284 285 285 286 286 286 286 286 286 286 286 286 286 286 286 285 285 285 285 285 284 284 284 284 284 284 284 284
286 286 286 286 285 285 285 285 285 284 284 284 283 284 284 285 285 286 286 286 286 286 286 286 286 286 285 285 285 285 285 285 285 284 284 284 284 284 284 283 283 283
286 286 286 285 285 284 284 284 284 284 284 284 283 283 284 284 285 286 286 286 286 285 285 285 285 285 285 285 285 285 284 284 284 284 283 283 284 284 283 283 283 282
286 286 285 285 284 284 284 284 284 284 284 283 283 283 283 284 284 285 286 286 285 285 285 285 285 285 285 285 285 284 284 283 283 283 283 283 283 283 283 282 282 282
286 286 285 285 284 284 284 284 284 284 284 284 283 283 283 283 284 285 285 285 285 285 285 285 285 285 285 285 284 284 283 283 283 283 283 283 283 283 282 282 281 282
286 286 286 285 285 285 284 284 284 284 284 284 283 283 283 283 283 284 284 284 284 285 284 285 285 285 285 285 284 284 283 283 283 282 282 282 283 282 282 281 281 281
286 286 286 285 285 285 285 284 284 284 284 283 283 283 283 283 283 283 283 284 284 284 284 284 285 285 285 284 284 284 283 283 282 282 282 282 282 282 281 281 281 281

ECMWFNIL_925_thetae_051.txt.gz
Theta_e
306 306 305 304 302 302 298 293 290 290 290 290 290 290 290 290 290 290 290 290 290 290 290 289 289 289 289 289 289 290 290 290 289 289 288 288 288 288 287 287 287 286
304 304 303 302 300 299 296 292 290 290 290 290 290 290 290 290 290 290 290 290 289 289 289 289 289 289 289 289 289 290 290 289 289 288 288 287 287 287 287 287 286 286
302 301 301 300 298 297 294 291 289 289 289 289 290 290 290 290 289 289 289 289 289 288 288 288 288 288 289 289 289 289 289 289 288 288 287 287 287 287 286 286 285 285
301 300 299 298 298 296 293 290 289 289 289 289 289 289 290 289 289 289 289 288 288 288 288 288 288 288 288 288 289 289 289 288 288 287 287 286 286 286 286 285 285 285
300 299 297 296 296 294 291 289 289 288 289 289 289 289 289 289 289 288 288 288 288 287 287 287 288 288 288 288 288 288 288 287 287 287 287 286 286 285 285 285 285 285
299 297 295 294 293 292 290 289 289 289 289 289 289 289 289 289 288 288 288 287 287 287 287 287 288 288 288 288 288 288 288 287 287 286 286 286 286 285 285 285 285 285
297 295 293 292 291 290 290 289 288 289 289 289 289 289 288 288 288 288 287 287 287 287 287 287 288 288 288 288 288 288 287 287 287 287 286 286 286 285 285 285 285 285
295 293 291 290 289 289 289 288 288 289 289 289 288 288 288 288 288 287 287 286 286 287 287 287 288 288 288 288 288 287 287 287 287 287 286 286 286 286 285 285 285 284
293 291 290 289 288 288 288 288 288 289 289 288 288 288 288 287 287 287 286 286 286 287 287 287 288 288 288 288 287 287 287 287 287 287 287 287 286 286 285 285 285 284
292 290 289 288 288 288 288 288 288 288 288 288 288 288 287 287 286 286 286 286 286 287 287 288 288 288 287 287 287 287 287 287 287 287 287 287 286 286 286 285 285 284
291 290 289 288 287 287 288 288 288 288 288 287 287 287 287 286 286 286 286 286 286 287 287 288 288 287 287 288 287 287 287 287 287 287 287 286 286 286 286 285 285 284
291 290 289 288 287 287 287 288 288 288 287 287 287 287 286 286 286 286 286 286 287 287 288 288 288 287 287 287 287 287 287 287 287 287 287 286 286 286 286 285 285 285
291 290 289 288 287 287 287 287 287 287 287 287 286 286 286 286 285 285 285 286 287 287 288 288 287 287 287 287 287 287 286 286 286 286 286 286 286 286 286 285 285 285
291 290 289 288 287 286 286 286 286 286 286 286 286 286 286 286 286 285 285 286 287 287 287 287 287 287 287 287 287 287 286 286 286 286 286 286 286 286 286 285 285 285
291 290 289 288 287 286 286 286 286 286 286 286 286 286 285 285 285 285 285 286 287 287 287 287 287 287 287 287 287 286 286 286 286 286 286 286 286 286 286 285 285 285
290 289 288 287 287 286 286 286 286 286 286 285 285 285 285 285 285 285 285 286 287 287 287 287 287 287 287 287 287 287 286 286 286 286 286 286 286 286 286 285 285 285
289 288 288 287 287 287 286 286 286 286 285 285 285 284 284 285 285 285 285 286 286 287 287 287 287 287 287 287 286 286 286 286 286 286 286 286 286 286 286 285 285 285
288 288 287 287 287 286 286 286 286 285 285 284 284 284 284 284 284 284 285 285 286 287 287 287 287 287 287 287 286 286 286 286 286 286 286 286 286 286 285 285 285 285
288 288 287 287 287 286 286 286 285 285 285 284 284 284 284 284 284 284 284 285 286 286 287 287 287 287 287 286 286 286 286 286 286 286 286 286 286 285 285 285 285 285
288 288 287 287 287 287 286 286 286 285 285 284 284 283 283 283 284 284 284 285 285 286 287 287 287 287 287 286 286 286 286 286 285 285 285 285 285 285 285 285 285 285
288 287 287 287 287 287 286 286 286 285 285 284 284 283 283 284 284 284 284 284 285 286 286 286 287 287 287 286 286 286 285 285 285 285 285 285 285 285 285 285 284 284
287 287 287 287 287 286 286 286 286 285 285 285 284 283 283 283 283 284 284 284 285 285 286 286 287 287 287 286 286 285 285 284 285 285 285 285 285 285 285 284 284 284
287 287 287 287 286 286 286 285 285 285 285 285 284 283 283 283 283 283 284 284 284 285 285 286 286 287 287 286 286 285 284 284 284 284 284 284 285 285 284 284 284 284
287 287 287 286 286 286 286 286 285 285 285 284 284 283 283 283 283 283 283 284 284 284 285 286 286 286 286 286 285 285 284 283 284 284 284 284 284 284 284 284 284 284
287 287 287 287 287 287 287 286 286 285 285 284 283 283 283 283 283 283 283 283 283 284 284 285 286 286 286 285 285 284 283 283 283 283 283 283 284 284 284 284 283 283
287 288 288 288 288 288 287 287 286 285 284 284 283 283 283 283 282 282 283 283 283 283 283 284 285 285 285 284 284 283 283 282 282 283 283 283 283 283 283 283 283 283

ECMWFNIL_925_thetae_054.txt.gz
Theta_e
308 310 309 310 311 311 311 311 310 309 309 308 306 305 304 304 304 299 293 291 291 291 291 291 291 292 291 291 291 292 291 291 291 290 290 290 290 290 290 289 289 288
307 308 308 308 309 309 310 311 310 309 308 307 305 303 303 303 300 294 290 291 291 291 291 291 291 291 291 291 291 291 291 291 290 290 290 290 290 289 289 289 288 288
307 307 307 307 308 309 309 308 307 308 307 305 302 302 303 301 295 290 290 290 290 290 290 290 291 291 291 291 291 291 291 290 290 289 289 289 289 289 289 288 288 287
306 306 307 307 308 308 308 306 305 304 303 301 300 301 301 297 291 289 290 290 290 290 290 290 290 290 291 291 290 290 290 290 290 289 289 289 289 289 288 288 287 287
306 307 306 306 306 306 306 305 304 301 299 298 298 299 296 292 289 290 289 289 289 289 289 289 290 290 290 290 290 290 290 289 289 289 289 289 288 288 288 287 287 286
306 306 306 306 306 305 304 303 303 300 296 296 296 294 292 290 289 289 289 289 289 289 289 289 289 289 290 290 290 289 289 289 289 288 289 288 288 288 287 287 286 286
304 304 304 305 305 303 302 301 300 296 293 293 292 290 290 289 289 289 289 289 289 289 289 289 289 289 289 289 289 289 289 289 288 288 288 288 288 287 287 286 286 286
302 302 302 302 302 301 300 299 297 293 290 290 290 289 289 289 289 289 288 288 288 288 288 288 289 289 288 289 288 288 288 288 288 288 288 287 287 287 287 286 286 286
300 300 299 299 298 298 297 296 294 290 289 289 289 289 289 289 288 288 288 288 288 288 288 288 288 288 288 288 288 288 288 288 288 288 288 287 287 287 287 286 286 286
298 297 297 296 296 296 296 294 292 289 287 288 288 288 288 288 288 288 288 287 287 287 287 287 287 288 288 288 288 288 288 288 288 287 287 287 287 287 287 287 287 286
296 296 295 295 294 294 294 293 290 288 287 287 287 288 287 287 287 287 287 287 287 287 287 287 287 288 288 288 288 287 287 288 288 287 287 287 287 287 287 287 287 286
294 294 294 294 293 293 293 292 290 288 287 287 287 287 287 287 287 287 286 287 287 287 287 287 287 287 287 288 287 287 287 287 287 287 287 287 287 287 287 287 287 286
294 293 294 294 293 293 292 291 289 287 286 286 287 287 287 287 286 286 286 286 286 286 286 286 287 287 287 288 287 287 287 287 287 287 287 287 287 287 287 287 286 286
293 293 293 294 293 292 291 290 289 287 286 286 286 286 286 287 287 286 286 286 286 286 286 286 286 287 287 287 287 287 287 287 287 287 287 287 287 287 286 286 286 286
292 292 292 292 291 290 289 288 287 286 286 286 286 286 286 286 286 286 286 285 285 285 285 286 286 287 287 287 287 287 287 287 287 287 287 287 287 287 286 286 286 286
291 292 291 290 289 288 287 286 286 286 285 285 286 286 286 286 285 285 285 285 285 285 285 285 286 286 287 287 287 287 287 287 287 287 287 287 287 286 286 286 286 286
291 291 290 289 287 286 286 286 286 285 285 285 285 285 285 285 284 285 285 285 285 285 285 285 286 286 287 287 287 287 287 287 287 287 287 287 286 286 286 286 286 286
290 290 289 288 287 286 286 286 285 285 285 285 285 285 284 284 284 284 284 284 284 284 285 285 285 286 287 287 287 287 287 287 287 287 287 287 286 286 286 286 286 286
290 289 289 288 287 287 286 286 285 285 285 285 285 284 284 284 284 284 284 284 284 284 285 285 285 286 287 287 287 287 287 287 287 287 287 287 287 286 286 286 286 286
289 289 288 288 288 287 287 286 285 285 285 284 284 284 284 284 284 284 284 284 284 284 284 284 285 286 287 287 287 287 287 287 287 287 287 287 286 286 286 286 286 286
289 289 288 288 288 287 286 286 285 285 284 284 284 284 284 284 284 284 284 284 284 284 284 284 285 286 286 287 287 287 287 287 286 287 286 286 286 286 286 286 286 285
289 288 288 288 287 286 286 285 285 285 284 284 284 283 283 284 284 284 284 284 284 284 284 284 285 285 286 286 287 287 286 286 286 286 286 286 286 286 286 285 285 285
288 288 288 287 287 286 286 285 285 284 284 284 284 283 283 283 283 284 284 285 284 284 284 284 285 286 286 286 286 286 286 285 285 285 285 285 285 286 285 285 285 285
288 288 288 287 286 286 286 285 285 285 284 284 284 283 283 283 283 284 285 285 284 284 284 285 286 286 285 285 285 285 285 284 284 284 284 284 285 285 285 285 285 285
288 288 288 287 287 286 286 286 285 285 285 284 284 284 285 285 286 286 285 285 284 283 284 285 285 285 284 284 284 284 284 283 283 283 283 283 284 284 284 284 284 284
288 288 288 288 287 287 286 286 286 285 285 285 286 286 287 287 287 287 286 285 284 284 284 284 284 284 283 283 282 282 283 282 282 282 282 283 283 283 283 283 283 284

ECMWFNIL_925_thetae_057.txt.gz
Theta_e
310 310 311 311 312 313 313 314 314 314 314 315 315 315 313 312 310 307 305 303 300 296 294 293 295 297 300 302 303 304 303 301 299 296 293 292 292 291 291 290 290 290
308 309 309 309 311 312 312 312 312 312 313 314 314 314 313 312 310 306 303 300 296 293 293 293 293 295 297 299 299 299 298 295 293 292 291 291 291 291 290 290 289 289
307 308 308 309 310 311 311 310 310 311 312 313 313 312 312 311 310 307 303 298 293 292 292 292 292 293 293 293 294 293 292 291 291 291 291 291 291 290 289 289 289 288
306 307 308 309 310 310 310 310 309 309 310 311 311 312 310 310 309 307 304 297 292 291 291 291 291 291 291 291 291 291 291 291 291 291 291 290 290 290 289 289 288 288
306 307 308 309 309 308 309 309 309 309 310 310 311 310 309 308 307 307 304 297 291 291 291 290 291 290 291 291 290 291 291 291 291 290 290 290 289 289 289 288 288 288
305 307 308 308 308 308 308 308 309 309 309 309 310 309 308 306 305 306 304 297 291 290 290 290 290 290 290 290 290 291 291 291 290 290 289 289 289 288 288 288 288 288
304 306 307 308 307 307 307 307 308 308 308 308 308 306 305 304 303 304 302 296 290 289 290 289 290 290 290 290 290 290 290 290 290 289 289 289 289 288 288 288 288 288
304 305 306 306 305 305 306 306 307 307 307 307 305 303 303 302 301 302 300 293 289 289 289 289 289 289 289 289 290 290 290 289 289 289 289 289 289 288 288 288 288 288
302 303 304 303 304 304 305 306 306 306 305 305 304 301 300 300 299 300 297 291 288 289 289 289 289 289 289 289 289 290 290 289 289 289 289 289 289 289 288 288 288 287
300 301 302 302 302 302 304 305 305 305 304 303 302 299 298 297 296 296 294 290 288 288 288 288 288 288 288 289 289 289 289 289 289 289 289 289 288 288 288 288 288 288
300 300 301 301 301 301 302 303 303 303 302 301 299 297 295 294 293 292 291 288 288 288 288 288 288 288 288 288 288 289 289 289 289 289 288 288 288 288 288 288 288 287
298 299 300 300 300 300 301 301 300 299 299 298 297 295 293 292 291 289 288 288 288 288 288 288 288 288 288 288 288 288 288 288 288 288 288 288 287 287 287 287 287 287
297 299 301 300 299 299 299 299 299 298 298 296 294 292 291 290 289 287 287 287 287 288 287 288 287 287 287 288 288 288 288 288 288 288 288 287 287 287 287 287 287 287
297 299 301 300 299 298 298 297 297 296 295 294 292 289 288 288 288 287 287 287 287 287 287 287 287 287 287 287 288 288 288 288 288 288 287 287 287 287 287 287 287 287
296 298 300 299 297 296 296 295 295 294 292 290 289 288 287 287 287 287 286 286 286 286 287 287 287 287 287 287 287 287 288 288 288 287 287 287 287 287 287 287 287 287
295 296 298 298 296 294 294 293 292 291 289 288 287 286 286 286 286 286 286 286 286 286 286 286 286 286 287 287 287 287 288 288 287 287 287 287 287 287 287 287 287 287
294 295 295 297 296 294 292 291 290 289 288 287 286 285 285 285 285 285 285 285 285 285 285 285 286 286 286 286 287 287 288 288 288 287 287 287 287 287 287 287 287 287
294 293 293 294 294 292 290 289 288 287 286 286 285 285 284 284 285 285 285 285 285 285 285 285 285 286 286 286 286 287 287 287 288 287 287 287 287 287 287 287 287 287
293 292 291 291 291 290 289 288 287 287 286 286 286 285 285 284 285 285 284 284 284 284 284 285 285 285 285 286 286 286 287 287 288 287 287 287 287 287 287 287 287 287
291 291 290 289 289 289 288 288 287 286 286 286 285 284 284 284 284 284 284 284 284 284 284 284 285 285 285 285 286 286 287 287 287 287 286 287 287 287 288 287 287 286
290 290 289 289 288 288 287 287 286 285 285 285 285 284 284 284 284 284 284 284 284 284 284 284 284 285 285 285 285 286 287 287 287 287 287 288 288 288 287 287 287 286
290 289 289 288 288 287 286 285 285 285 285 284 284 283 283 283 283 283 283 283 283 283 283 284 284 284 284 284 285 286 287 287 287 287 288 288 288 288 287 287 286 286
290 289 289 288 287 287 286 285 285 285 284 284 284 283 283 283 283 283 283 283 283 283 283 284 284 284 284 285 287 287 286 286 286 287 287 288 288 287 287 287 286 286
289 289 289 288 288 287 287 286 286 285 285 284 284 284 283 283 283 283 283 283 283 283 283 283 283 284 285 287 288 287 286 285 286 287 287 287 287 287 286 286 286 285
289 289 289 289 288 288 287 286 286 285 285 285 284 284 284 283 283 283 282 282 282 282 282 282 283 285 287 289 288 286 285 285 285 286 286 285 285 285 285 285 285 284
289 289 289 289 289 288 287 286 286 286 285 285 284 283 283 283 283 282 282 282 282 282 283 284 286 288 289 289 288 286 285 285 285 285 285 284 284 284 284 284 283 283

ECMWFNIL_925_thetae_060.txt.gz
Theta_e
310 310 310 311 312 313 315 315 315 316 317 316 315 315 315 315 315 315 314 315 315 315 314 314 313 313 313 313 312 312 311 310 309 309 308 306 304 303 303 302 298 293
309 309 309 310 311 313 314 314 315 316 316 316 316 315 315 315 316 316 314 315 314 313 313 312 311 310 311 310 310 309 309 308 308 308 306 304 303 302 301 299 294 291
308 308 309 310 310 312 313 313 313 314 314 315 315 315 315 315 315 315 315 315 313 312 312 310 308 307 306 306 306 307 307 307 306 306 304 303 302 301 298 294 291 290
307 307 307 309 310 311 312 312 311 311 312 313 314 315 314 314 314 315 314 313 312 312 311 309 305 302 300 301 303 304 305 305 305 304 303 301 300 298 294 291 290 290
306 305 306 307 308 310 311 311 310 310 311 313 314 314 314 313 313 314 314 312 310 310 308 304 300 297 297 299 301 302 303 303 303 303 302 299 296 293 291 290 290 289
305 305 305 305 306 308 309 309 309 310 311 312 312 311 311 312 311 312 313 311 309 307 303 299 296 295 297 299 300 301 302 302 301 301 299 295 292 290 290 290 289 289
304 304 304 304 305 307 308 308 308 309 310 311 310 309 310 311 310 310 311 310 307 305 301 296 294 295 297 299 300 300 301 301 300 297 294 291 290 290 290 289 289 288
303 302 303 304 305 306 306 306 307 308 309 308 307 307 308 310 309 308 309 308 305 302 298 294 293 293 295 298 299 299 299 297 295 292 290 290 290 290 289 289 288 288
301 301 303 303 304 304 304 305 306 307 308 306 306 306 307 308 308 306 307 307 304 299 295 293 292 292 293 295 296 296 294 292 291 290 290 290 290 290 289 288 288 287
301 301 302 302 302 302 303 304 305 307 307 306 305 304 304 306 306 305 305 305 301 297 294 291 290 290 291 292 292 291 291 290 290 290 290 290 290 290 289 288 288 288
301 302 302 302 302 302 302 302 304 305 306 305 304 303 303 305 305 303 302 302 299 296 293 291 290 289 290 289 289 289 290 290 290 290 290 290 290 289 289 289 288 288
301 301 302 302 301 301 301 302 303 304 304 304 303 303 304 305 303 301 300 300 299 296 293 291 290 289 289 289 289 289 290 290 290 290 290 290 289 289 289 289 288 288
300 301 302 301 301 301 301 301 302 303 303 303 303 304 304 303 301 299 299 299 298 295 292 291 289 289 289 289 289 289 289 290 290 290 290 289 289 288 288 288 288 288
299 300 301 301 301 301 301 301 301 302 302 302 302 302 301 300 299 298 298 298 296 293 291 289 288 288 288 288 288 289 289 289 289 289 289 289 288 288 288 288 288 287
299 299 299 300 300 299 299 299 300 300 300 300 300 299 298 297 296 296 295 294 293 291 289 287 287 287 288 288 288 289 289 289 289 289 289 288 288 288 287 287 287 287
298 297 297 297 297 298 298 298 298 298 297 297 296 296 295 294 293 292 291 291 290 288 286 286 286 287 287 288 288 289 289 289 288 289 289 289 288 288 287 287 287 287
297 296 296 296 296 296 296 296 296 296 296 295 294 292 292 291 290 289 289 288 287 286 285 286 286 286 287 287 288 288 288 288 288 289 288 288 288 287 287 287 287 288
296 295 295 294 295 295 294 294 294 295 293 292 291 290 289 289 288 287 287 286 286 285 285 286 286 286 286 287 287 287 288 288 288 288 288 288 287 287 287 288 288 287
295 294 294 293 293 293 292 291 292 293 292 291 290 289 288 287 286 286 285 285 285 285 285 285 285 286 286 286 286 287 287 287 287 288 288 288 287 287 288 288 287 287
294 294 293 292 292 292 291 290 291 293 293 291 289 288 286 285 285 285 284 284 284 284 284 284 285 285 285 285 286 286 286 286 287 287 287 287 288 288 288 288 287 287
293 293 292 292 291 290 290 289 290 291 290 289 287 287 286 285 285 284 283 283 283 283 283 284 284 284 285 285 285 285 285 285 286 287 287 287 287 287 287 287 287 288
293 292 291 291 290 289 289 289 288 288 288 287 286 286 285 285 284 283 283 283 283 283 283 283 284 284 284 284 284 284 285 285 285 286 286 287 287 287 287 287 288 288
292 291 290 290 289 289 288 288 288 287 286 286 285 284 284 284 283 283 283 283 282 282 282 283 283 283 283 284 284 284 284 285 285 286 286 287 287 288 288 288 287 288
291 291 290 289 289 289 288 288 287 287 286 285 285 284 284 283 283 282 282 282 282 282 283 283 283 283 283 283 283 284 284 284 285 286 287 289 289 288 287 287 287 288
291 290 290 290 289 288 288 287 286 286 285 285 284 284 284 283 283 282 282 282 282 282 282 283 283 283 283 283 283 283 284 285 287 289 290 290 289 287 287 287 287 287
290 290 290 289 289 288 287 287 286 285 285 284 284 284 284 283 283 282 282 282 282 282 282 282 282 283 283 283 283 284 286 288 290 291 291 290 288 287 287 287 286 286

ECMWFNIL_925_thetae_063.txt.gz
Theta_e
311 312 313 313 313 314 314 314 314 314 314 315 315 316 317 318 318 318 317 316 316 316 316 316 315 314 312 311 310 308 307 305 304 304 304 305 306 307 306 304 301 300
310 311 312 312 312 313 313 312 313 313 313 314 316 317 317 318 317 317 317 316 316 316 315 314 314 313 310 308 307 306 305 304 304 304 304 305 306 306 306 304 301 300
309 310 311 311 311 313 312 311 311 312 312 313 316 317 316 316 316 315 315 315 315 314 314 313 313 312 309 306 306 305 304 304 305 305 305 305 305 305 305 303 300 298
309 309 310 310 310 311 310 310 311 312 312 313 314 315 314 314 313 314 314 314 313 312 312 312 312 311 308 306 305 305 304 304 305 305 304 304 304 304 303 302 299 297
308 309 309 308 309 309 309 310 311 311 312 312 312 312 312 311 311 312 313 313 312 311 311 312 311 309 308 307 306 304 302 302 304 304 304 302 302 302 301 300 298 295
308 308 308 307 307 308 308 309 310 310 310 311 312 312 311 310 310 311 312 312 312 311 311 311 309 307 306 306 304 303 301 302 303 304 303 301 300 300 299 298 296 294
307 307 307 306 306 307 307 309 309 308 309 311 312 311 309 309 310 311 311 311 311 311 311 310 309 308 307 305 303 301 301 300 302 302 301 299 299 298 297 296 294 292
307 307 306 305 305 306 307 308 307 307 309 310 311 310 308 308 309 309 310 310 309 310 310 309 307 308 307 304 300 299 298 298 300 300 298 297 298 296 294 293 292 291
306 306 305 304 305 305 306 306 305 306 307 308 309 308 308 308 308 307 308 308 306 307 307 305 305 306 305 301 297 296 296 297 298 298 297 296 296 295 293 291 290 289
306 305 304 304 304 305 305 304 304 305 306 306 306 306 307 307 306 306 306 304 303 304 304 302 303 305 302 297 295 295 295 296 296 296 296 296 296 295 292 290 289 289
305 304 304 304 304 304 304 303 303 304 305 305 305 305 306 306 305 305 304 302 302 303 302 300 300 301 300 297 295 294 294 296 296 296 295 295 295 294 292 290 289 290
304 304 303 303 303 303 303 302 302 302 303 305 305 304 304 305 304 304 303 302 302 302 301 299 298 298 299 298 296 294 293 294 295 295 294 294 293 292 291 290 290 290
303 303 302 302 302 302 302 301 301 300 300 303 304 302 303 303 303 303 302 301 302 302 302 301 297 295 296 296 295 293 292 293 294 294 293 292 291 290 290 290 290 290
303 302 302 301 301 301 302 301 300 299 300 302 301 301 301 302 302 302 301 300 301 302 302 300 297 295 294 292 291 291 291 292 293 292 290 289 289 289 289 290 290 290
302 302 301 300 300 300 301 301 300 299 299 299 299 299 299 300 300 299 299 299 300 299 298 297 296 294 292 290 290 290 290 290 291 290 289 288 289 289 289 289 289 289
302 301 300 299 299 299 300 301 299 298 298 297 297 297 297 298 297 297 296 296 297 296 295 294 293 292 290 290 290 289 289 289 289 288 288 289 289 288 288 288 288 288
301 300 299 299 299 299 299 299 299 298 297 296 295 296 296 296 296 295 295 295 294 294 293 292 292 291 290 289 288 288 288 288 288 288 288 288 289 289 288 288 288 287
300 299 299 298 298 298 298 298 298 297 295 294 294 295 295 295 295 295 295 294 293 292 292 291 291 291 289 288 287 287 287 287 288 288 288 288 288 288 288 288 287 287
299 298 298 297 297 297 297 297 297 295 294 293 294 294 294 293 293 294 294 293 292 290 290 289 289 289 288 287 286 286 286 287 288 288 288 288 288 288 288 288 287 287
298 297 297 297 296 296 296 296 295 294 293 293 293 293 292 292 292 291 290 290 290 289 288 288 287 287 287 286 285 285 286 287 287 288 288 288 288 288 288 288 287 287
297 297 296 296 295 295 295 294 294 293 292 292 292 291 291 292 291 290 289 288 288 287 287 286 286 285 285 285 285 285 285 286 286 287 287 287 288 288 287 287 287 288
296 296 295 295 294 294 293 293 292 291 291 291 290 290 290 290 289 288 287 287 287 286 285 285 284 284 284 284 284 284 284 285 285 286 286 287 287 287 287 287 288 288
295 295 295 294 293 292 292 291 291 290 290 290 289 288 288 288 287 287 287 287 286 285 284 284 284 283 283 284 283 283 283 284 285 285 286 287 287 287 287 287 287 287
294 294 294 293 292 292 291 290 290 289 289 289 289 288 287 286 286 286 286 286 285 284 284 284 283 283 283 283 283 283 283 284 285 285 286 286 286 286 287 287 287 288
293 293 293 292 292 291 291 290 289 288 288 288 287 287 287 286 286 286 285 285 284 284 283 283 283 283 283 283 283 283 283 283 284 285 285 285 285 286 287 287 288 290
292 293 293 292 291 291 290 289 288 288 287 287 286 286 287 286 285 285 285 284 283 283 283 282 282 283 283 283 283 283 283 283 284 285 285 285 286 287 288 289 290 290